| time (UTC) | temp F | wind direction | speed MPH | gust MPH | rain 1hr in | rain 24hr in | rain mn in | humidity % | barometer mb |
| 20260508035846 | 71 | 0 | 4.0 | 6.0 | 0.00 | 0.00 | 0.00 | 73 | 1007.9 |
| 20260508035747 | 71 | 0 | 3.0 | 6.0 | 0.00 | 0.00 | 0.00 | 73 | 1007.9 |
| 20260508035646 | 71 | 4 | 4.0 | 6.0 | 0.00 | 0.00 | 0.00 | 73 | 1007.9 |
| 20260508035546 | 71 | 27 | 3.0 | 6.0 | 0.00 | 0.00 | 0.00 | 73 | 1008.0 |
| 20260508035447 | 71 | 23 | 2.0 | 6.0 | 0.00 | 0.00 | 0.00 | 73 | 1007.9 |
| 20260508035348 | 71 | 0 | 2.0 | 7.0 | 0.00 | 0.00 | 0.00 | 73 | 1007.8 |
| 20260508035248 | 71 | 18 | 2.0 | 7.0 | 0.00 | 0.00 | 0.00 | 73 | 1007.7 |
| 20260508035146 | 71 | 16 | 3.0 | 7.0 | 0.00 | 0.00 | 0.00 | 73 | 1007.6 |
| 20260508035046 | 71 | 44 | 4.0 | 7.0 | 0.00 | 0.00 | 0.00 | 73 | 1007.6 |
| 20260508034947 | 71 | 20 | 4.0 | 7.0 | 0.00 | 0.00 | 0.00 | 73 | 1007.4 |
| 20260508034848 | 71 | 0 | 5.0 | 7.0 | 0.00 | 0.00 | 0.00 | 73 | 1007.4 |
| 20260508034747 | 71 | 23 | 4.0 | 7.0 | 0.00 | 0.00 | 0.00 | 73 | 1007.5 |
| 20260508034648 | 71 | 16 | 4.0 | 7.0 | 0.00 | 0.00 | 0.00 | 73 | 1007.5 |
| 20260508034546 | 71 | 0 | 4.0 | 7.0 | 0.00 | 0.00 | 0.00 | 73 | 1007.5 |
| 20260508034445 | 71 | 17 | 4.0 | 10.0 | 0.00 | 0.00 | 0.00 | 73 | 1007.5 |
| 20260508034345 | 71 | 340 | 2.0 | 10.0 | 0.00 | 0.00 | 0.00 | 73 | 1007.5 |
| 20260508034246 | 71 | 4 | 2.0 | 10.0 | 0.00 | 0.00 | 0.00 | 73 | 1007.4 |
| 20260508034146 | 71 | 41 | 3.0 | 10.0 | 0.00 | 0.00 | 0.00 | 73 | 1007.4 |
| 20260508034045 | 71 | 55 | 3.0 | 10.0 | 0.00 | 0.00 | 0.00 | 73 | 1007.3 |
| 20260508033946 | 71 | 63 | 3.0 | 10.0 | 0.00 | 0.00 | 0.00 | 73 | 1007.1 |
| 20260508033847 | 71 | 49 | 3.0 | 10.0 | 0.00 | 0.00 | 0.00 | 72 | 1007.1 |
| 20260508033746 | 71 | 127 | 4.0 | 10.0 | 0.00 | 0.00 | 0.00 | 72 | 1006.9 |
| 20260508033648 | 72 | 82 | 4.0 | 10.0 | 0.00 | 0.00 | 0.00 | 72 | 1006.9 |
| 20260508033546 | 71 | 85 | 5.0 | 10.0 | 0.00 | 0.00 | 0.00 | 72 | 1006.9 |
| 20260508033447 | 71 | 90 | 5.0 | 10.0 | 0.00 | 0.00 | 0.00 | 72 | 1006.9 |
| 20260508033346 | 72 | 76 | 5.0 | 10.0 | 0.00 | 0.00 | 0.00 | 72 | 1006.8 |
| 20260508033247 | 71 | 96 | 5.0 | 10.0 | 0.00 | 0.00 | 0.00 | 72 | 1006.9 |
| 20260508033148 | 71 | 31 | 5.0 | 10.0 | 0.00 | 0.00 | 0.00 | 72 | 1006.9 |
| 20260508033046 | 72 | 114 | 5.0 | 10.0 | 0.00 | 0.00 | 0.00 | 73 | 1007.0 |
| 20260508032947 | 71 | 85 | 6.0 | 10.0 | 0.00 | 0.00 | 0.00 | 73 | 1007.0 |
| 20260508032846 | 71 | 93 | 7.0 | 10.0 | 0.00 | 0.00 | 0.00 | 73 | 1007.0 |
| 20260508032745 | 72 | 86 | 6.0 | 9.0 | 0.00 | 0.00 | 0.00 | 73 | 1006.9 |
| 20260508032645 | 72 | 71 | 6.0 | 7.0 | 0.00 | 0.00 | 0.00 | 73 | 1007.0 |
| 20260508032546 | 72 | 100 | 5.0 | 7.0 | 0.00 | 0.00 | 0.00 | 73 | 1007.0 |
| 20260508032445 | 72 | 65 | 5.0 | 7.0 | 0.00 | 0.00 | 0.00 | 73 | 1007.1 |
| 20260508032347 | 72 | 94 | 4.0 | 7.0 | 0.00 | 0.00 | 0.00 | 73 | 1007.1 |
| 20260508032248 | 72 | 73 | 4.0 | 6.0 | 0.00 | 0.00 | 0.00 | 73 | 1007.2 |
| 20260508032145 | 72 | 80 | 4.0 | 6.0 | 0.00 | 0.00 | 0.00 | 73 | 1007.4 |
| 20260508032046 | 72 | 89 | 4.0 | 6.0 | 0.00 | 0.00 | 0.00 | 73 | 1007.4 |
| 20260508031947 | 72 | 107 | 4.0 | 6.0 | 0.00 | 0.00 | 0.00 | 72 | 1007.5 |
| 20260508031847 | 72 | 85 | 3.0 | 6.0 | 0.00 | 0.00 | 0.00 | 72 | 1007.6 |
| 20260508031745 | 72 | 89 | 2.0 | 7.0 | 0.00 | 0.00 | 0.00 | 72 | 1007.6 |
| 20260508031646 | 72 | 54 | 2.0 | 7.0 | 0.00 | 0.00 | 0.00 | 72 | 1007.6 |
| 20260508031545 | 72 | 59 | 3.0 | 7.0 | 0.00 | 0.00 | 0.00 | 72 | 1007.7 |
| 20260508031445 | 72 | 85 | 4.0 | 7.0 | 0.00 | 0.00 | 0.00 | 72 | 1007.7 |
| 20260508031346 | 72 | 97 | 4.0 | 7.0 | 0.00 | 0.00 | 0.00 | 72 | 1007.8 |
| 20260508031246 | 72 | 48 | 4.0 | 7.0 | 0.00 | 0.00 | 0.00 | 72 | 1007.7 |
| 20260508031145 | 72 | 71 | 3.0 | 7.0 | 0.00 | 0.00 | 0.00 | 73 | 1007.9 |
| 20260508031046 | 72 | 85 | 4.0 | 7.0 | 0.00 | 0.00 | 0.00 | 73 | 1008.0 |
| 20260508030945 | 72 | 35 | 4.0 | 7.0 | 0.00 | 0.00 | 0.00 | 73 | 1008.0 |
| 20260508030844 | 72 | 32 | 4.0 | 7.0 | 0.00 | 0.00 | 0.00 | 73 | 1008.1 |
| 20260508030745 | 72 | 55 | 4.0 | 6.0 | 0.00 | 0.00 | 0.00 | 73 | 1008.2 |
| 20260508030631 | 72 | 35 | 2.0 | 5.0 | 0.00 | 0.00 | 0.00 | 74 | 1008.0 |
| 20260508030531 | 72 | 41 | 1.0 | 5.0 | 0.00 | 0.00 | 0.00 | 74 | 1008.0 |
| 20260508030432 | 72 | 41 | 2.0 | 5.0 | 0.00 | 0.00 | 0.00 | 74 | 1007.9 |
| 20260508030331 | 72 | 39 | 3.0 | 5.0 | 0.00 | 0.00 | 0.00 | 74 | 1008.0 |
| 20260508030231 | 72 | 39 | 3.0 | 5.0 | 0.00 | 0.00 | 0.00 | 74 | 1008.0 |
| 20260508030130 | 72 | 49 | 3.0 | 5.0 | 0.00 | 0.00 | 0.00 | 74 | 1008.0 |
| 20260508030021 | 72 | 49 | 3.0 | 5.0 | 0.00 | 0.00 | 0.00 | 74 | 1008.0 |
| 20260508025918 | 72 | 35 | 2.0 | 5.0 | 0.00 | 0.00 | 0.00 | 75 | 1008.1 |
| 20260508025818 | 72 | 27 | 2.0 | 5.0 | 0.00 | 0.00 | 0.00 | 74 | 1008.2 |
| 20260508025708 | 72 | 25 | 2.0 | 5.0 | 0.00 | 0.00 | 0.00 | 74 | 1008.2 |
| 20260508025607 | 72 | 25 | 2.0 | 5.0 | 0.00 | 0.00 | 0.00 | 74 | 1008.2 |
| 20260508025504 | 72 | 25 | 2.0 | 5.0 | 0.00 | 0.00 | 0.00 | 74 | 1008.3 |
| 20260508025405 | 72 | 25 | 2.0 | 5.0 | 0.00 | 0.00 | 0.00 | 74 | 1008.3 |
| 20260508025306 | 72 | 27 | 3.0 | 5.0 | 0.00 | 0.00 | 0.00 | 75 | 1008.3 |
| 20260508025204 | 72 | 27 | 3.0 | 5.0 | 0.00 | 0.00 | 0.00 | 75 | 1008.2 |
| 20260508025102 | 72 | 31 | 2.0 | 5.0 | 0.00 | 0.00 | 0.00 | 74 | 1008.3 |
| 20260508025004 | 72 | 32 | 2.0 | 5.0 | 0.00 | 0.00 | 0.00 | 75 | 1008.2 |
| 20260508024904 | 72 | 32 | 2.0 | 5.0 | 0.00 | 0.00 | 0.00 | 75 | 1008.2 |
| 20260508024803 | 72 | 32 | 2.0 | 5.0 | 0.00 | 0.00 | 0.00 | 75 | 1008.2 |
| 20260508024702 | 72 | 32 | 3.0 | 5.0 | 0.00 | 0.00 | 0.00 | 75 | 1008.1 |
| 20260508024602 | 72 | 35 | 3.0 | 5.0 | 0.00 | 0.00 | 0.00 | 74 | 1008.2 |
| 20260508024505 | 72 | 37 | 4.0 | 5.0 | 0.00 | 0.00 | 0.00 | 74 | 1008.1 |
| 20260508024403 | 72 | 17 | 4.0 | 5.0 | 0.00 | 0.00 | 0.00 | 74 | 1008.1 |
| 20260508024302 | 72 | 16 | 4.0 | 5.0 | 0.00 | 0.00 | 0.00 | 74 | 1008.2 |
| 20260508024203 | 72 | 0 | 4.0 | 5.0 | 0.00 | 0.00 | 0.00 | 74 | 1008.2 |
| 20260508024104 | 72 | 0 | 4.0 | 5.0 | 0.00 | 0.00 | 0.00 | 74 | 1008.1 |
| 20260508024002 | 72 | 0 | 4.0 | 5.0 | 0.00 | 0.00 | 0.00 | 75 | 1008.2 |
| 20260508023904 | 72 | 0 | 4.0 | 5.0 | 0.00 | 0.00 | 0.00 | 75 | 1008.2 |
| 20260508023804 | 72 | 0 | 4.0 | 5.0 | 0.00 | 0.00 | 0.00 | 75 | 1008.2 |
| 20260508023702 | 73 | 0 | 4.0 | 5.0 | 0.00 | 0.00 | 0.00 | 75 | 1008.2 |
| 20260508023604 | 73 | 0 | 3.0 | 5.0 | 0.00 | 0.00 | 0.00 | 75 | 1008.3 |
| 20260508023505 | 73 | 357 | 3.0 | 5.0 | 0.00 | 0.00 | 0.00 | 75 | 1008.4 |
| 20260508023402 | 73 | 357 | 4.0 | 5.0 | 0.00 | 0.00 | 0.00 | 75 | 1008.3 |
| 20260508023304 | 73 | 340 | 4.0 | 5.0 | 0.00 | 0.00 | 0.00 | 75 | 1008.2 |
| 20260508023203 | 73 | 0 | 4.0 | 5.0 | 0.00 | 0.00 | 0.00 | 75 | 1008.2 |
| 20260508023104 | 73 | 354 | 4.0 | 5.0 | 0.00 | 0.00 | 0.00 | 75 | 1008.2 |
| 20260508023003 | 73 | 0 | 4.0 | 5.0 | 0.00 | 0.00 | 0.00 | 75 | 1008.1 |
| 20260508022902 | 73 | 0 | 3.0 | 4.0 | 0.00 | 0.00 | 0.00 | 74 | 1008.0 |
| 20260508022804 | 73 | 25 | 2.0 | 3.0 | 0.00 | 0.00 | 0.00 | 74 | 1008.0 |
| 20260508022702 | 73 | 25 | 1.0 | 3.0 | 0.00 | 0.00 | 0.00 | 74 | 1007.9 |
| 20260508022604 | 73 | 25 | 1.0 | 3.0 | 0.00 | 0.00 | 0.00 | 74 | 1007.9 |
| 20260508022503 | 73 | 25 | 2.0 | 4.0 | 0.00 | 0.00 | 0.00 | 74 | 1007.9 |
| 20260508022404 | 73 | 24 | 1.0 | 4.0 | 0.00 | 0.00 | 0.00 | 74 | 1007.9 |
| 20260508022306 | 73 | 24 | 2.0 | 4.0 | 0.00 | 0.00 | 0.00 | 74 | 1007.8 |
| 20260508022202 | 73 | 24 | 2.0 | 4.0 | 0.00 | 0.00 | 0.00 | 74 | 1007.8 |
| 20260508022103 | 73 | 23 | 2.0 | 4.0 | 0.00 | 0.00 | 0.00 | 74 | 1007.7 |
| 20260508022005 | 73 | 21 | 2.0 | 4.0 | 0.00 | 0.00 | 0.00 | 75 | 1007.7 |
| 20260508021903 | 73 | 21 | 2.0 | 4.0 | 0.00 | 0.00 | 0.00 | 75 | 1007.8 |
| 20260508021803 | 73 | 20 | 1.0 | 4.0 | 0.00 | 0.00 | 0.00 | 75 | 1007.8 |
| 20260508021703 | 73 | 20 | 2.0 | 4.0 | 0.00 | 0.00 | 0.00 | 75 | 1007.8 |
| 20260508021603 | 73 | 20 | 3.0 | 4.0 | 0.00 | 0.00 | 0.00 | 75 | 1007.9 |
| 20260508021503 | 73 | 20 | 3.0 | 5.0 | 0.00 | 0.00 | 0.00 | 75 | 1007.8 |
| 20260508021403 | 73 | 10 | 2.0 | 6.0 | 0.00 | 0.00 | 0.00 | 75 | 1007.9 |
| 20260508021303 | 73 | 10 | 2.0 | 6.0 | 0.00 | 0.00 | 0.00 | 75 | 1007.9 |
| 20260508021204 | 73 | 10 | 2.0 | 6.0 | 0.00 | 0.00 | 0.00 | 75 | 1007.9 |
| 20260508021102 | 73 | 10 | 2.0 | 6.0 | 0.00 | 0.00 | 0.00 | 75 | 1007.9 |
| 20260508021003 | 73 | 10 | 2.0 | 6.0 | 0.00 | 0.00 | 0.00 | 75 | 1007.9 |
| 20260508020903 | 73 | 10 | 2.0 | 6.0 | 0.00 | 0.00 | 0.00 | 74 | 1007.9 |
| 20260508020802 | 73 | 10 | 3.0 | 6.0 | 0.00 | 0.00 | 0.00 | 74 | 1007.8 |
| 20260508020704 | 73 | 10 | 3.0 | 6.0 | 0.00 | 0.00 | 0.00 | 74 | 1007.8 |
| 20260508020604 | 73 | 3 | 3.0 | 6.0 | 0.00 | 0.00 | 0.00 | 74 | 1007.8 |
| 20260508020504 | 73 | 0 | 4.0 | 6.0 | 0.00 | 0.00 | 0.00 | 74 | 1007.8 |
| 20260508020403 | 73 | 41 | 3.0 | 3.0 | 0.00 | 0.00 | 0.00 | 74 | 1007.8 |
| 20260508020303 | 73 | 44 | 2.0 | 3.0 | 0.00 | 0.00 | 0.00 | 74 | 1007.8 |
| 20260508020203 | 73 | 44 | 2.0 | 3.0 | 0.00 | 0.00 | 0.00 | 74 | 1007.9 |
| 20260508020003 | 73 | 44 | 2.0 | 4.0 | 0.00 | 0.00 | 0.00 | 74 | 1008.0 |
| 20260508015903 | 73 | 44 | 2.0 | 4.0 | 0.00 | 0.00 | 0.00 | 74 | 1008.1 |
| 20260508015802 | 73 | 44 | 2.0 | 4.0 | 0.00 | 0.00 | 0.00 | 74 | 1008.0 |
| 20260508015703 | 73 | 44 | 2.0 | 4.0 | 0.00 | 0.00 | 0.00 | 74 | 1008.0 |
| 20260508015604 | 73 | 44 | 2.0 | 4.0 | 0.00 | 0.00 | 0.00 | 74 | 1008.0 |
| 20260508015505 | 73 | 44 | 2.0 | 4.0 | 0.00 | 0.00 | 0.00 | 74 | 1007.9 |
| 20260508015403 | 73 | 44 | 2.0 | 4.0 | 0.00 | 0.00 | 0.00 | 74 | 1007.9 |
| 20260508015305 | 74 | 45 | 2.0 | 4.0 | 0.00 | 0.00 | 0.00 | 74 | 1007.9 |
| 20260508015202 | 73 | 47 | 2.0 | 4.0 | 0.00 | 0.00 | 0.00 | 74 | 1008.0 |
| 20260508015103 | 73 | 47 | 2.0 | 4.0 | 0.00 | 0.00 | 0.00 | 74 | 1008.0 |
| 20260508015006 | 73 | 48 | 2.0 | 4.0 | 0.00 | 0.00 | 0.00 | 74 | 1008.0 |
| 20260508014904 | 74 | 48 | 2.0 | 5.0 | 0.00 | 0.00 | 0.00 | 74 | 1008.0 |
| 20260508014803 | 74 | 49 | 2.0 | 5.0 | 0.00 | 0.00 | 0.00 | 73 | 1007.9 |
| 20260508014703 | 74 | 49 | 2.0 | 5.0 | 0.00 | 0.00 | 0.00 | 73 | 1007.9 |
| 20260508014603 | 74 | 49 | 2.0 | 5.0 | 0.00 | 0.00 | 0.00 | 73 | 1007.9 |
| 20260508014503 | 74 | 49 | 2.0 | 5.0 | 0.00 | 0.00 | 0.00 | 73 | 1007.8 |
| 20260508014402 | 74 | 49 | 2.0 | 5.0 | 0.00 | 0.00 | 0.00 | 73 | 1007.8 |
| 20260508014304 | 74 | 49 | 1.0 | 5.0 | 0.00 | 0.00 | 0.00 | 73 | 1007.8 |
| 20260508014204 | 74 | 52 | 1.0 | 5.0 | 0.00 | 0.00 | 0.00 | 73 | 1007.8 |
| 20260508014104 | 74 | 52 | 2.0 | 5.0 | 0.00 | 0.00 | 0.00 | 73 | 1007.8 |
| 20260508014002 | 74 | 52 | 3.0 | 5.0 | 0.00 | 0.00 | 0.00 | 73 | 1007.7 |
| 20260508013903 | 74 | 55 | 2.0 | 5.0 | 0.00 | 0.00 | 0.00 | 73 | 1007.7 |
| 20260508013802 | 74 | 58 | 2.0 | 5.0 | 0.00 | 0.00 | 0.00 | 73 | 1007.6 |
| 20260508013703 | 74 | 51 | 1.0 | 4.0 | 0.00 | 0.00 | 0.00 | 73 | 1007.7 |
| 20260508013603 | 74 | 49 | 1.0 | 4.0 | 0.00 | 0.00 | 0.00 | 73 | 1007.6 |
| 20260508013504 | 74 | 49 | 2.0 | 4.0 | 0.00 | 0.00 | 0.00 | 73 | 1007.7 |
| 20260508013403 | 74 | 49 | 2.0 | 4.0 | 0.00 | 0.00 | 0.00 | 73 | 1007.7 |
| 20260508013303 | 74 | 48 | 2.0 | 4.0 | 0.00 | 0.00 | 0.00 | 73 | 1007.7 |
| 20260508013202 | 74 | 41 | 2.0 | 4.0 | 0.00 | 0.00 | 0.00 | 73 | 1007.8 |
| 20260508013103 | 74 | 41 | 2.0 | 5.0 | 0.00 | 0.00 | 0.00 | 73 | 1007.8 |
| 20260508013004 | 74 | 39 | 3.0 | 5.0 | 0.00 | 0.00 | 0.00 | 73 | 1007.8 |
| 20260508012904 | 74 | 27 | 3.0 | 5.0 | 0.00 | 0.00 | 0.00 | 72 | 1007.9 |
| 20260508012801 | 74 | 27 | 3.0 | 5.0 | 0.00 | 0.00 | 0.00 | 73 | 1007.9 |
| 20260508012703 | 74 | 25 | 3.0 | 5.0 | 0.00 | 0.00 | 0.00 | 73 | 1007.9 |
| 20260508012603 | 74 | 32 | 3.0 | 5.0 | 0.00 | 0.00 | 0.00 | 72 | 1007.9 |
| 20260508012505 | 74 | 35 | 3.0 | 5.0 | 0.00 | 0.00 | 0.00 | 72 | 1008.0 |
| 20260508012404 | 74 | 37 | 3.0 | 5.0 | 0.00 | 0.00 | 0.00 | 72 | 1008.0 |
| 20260508012307 | 74 | 20 | 3.0 | 5.0 | 0.00 | 0.00 | 0.00 | 72 | 1007.9 |
| 20260508012202 | 74 | 21 | 3.0 | 5.0 | 0.00 | 0.00 | 0.00 | 72 | 1007.9 |
| 20260508012103 | 74 | 20 | 3.0 | 5.0 | 0.00 | 0.00 | 0.00 | 72 | 1007.9 |
| 20260508012002 | 74 | 13 | 3.0 | 5.0 | 0.00 | 0.00 | 0.00 | 72 | 1007.9 |
| 20260508011904 | 74 | 1 | 4.0 | 5.0 | 0.00 | 0.00 | 0.00 | 72 | 1007.8 |
| 20260508011802 | 74 | 6 | 4.0 | 5.0 | 0.00 | 0.00 | 0.00 | 72 | 1007.9 |
| 20260508011702 | 74 | 6 | 3.0 | 5.0 | 0.00 | 0.00 | 0.00 | 72 | 1007.8 |
| 20260508011602 | 74 | 32 | 3.0 | 5.0 | 0.00 | 0.00 | 0.00 | 72 | 1007.8 |
| 20260508011502 | 74 | 31 | 3.0 | 5.0 | 0.00 | 0.00 | 0.00 | 72 | 1007.9 |
| 20260508011402 | 74 | 38 | 3.0 | 5.0 | 0.00 | 0.00 | 0.00 | 71 | 1007.9 |
| 20260508011303 | 74 | 34 | 3.0 | 5.0 | 0.00 | 0.00 | 0.00 | 71 | 1007.8 |
| 20260508011202 | 74 | 28 | 3.0 | 5.0 | 0.00 | 0.00 | 0.00 | 71 | 1007.8 |
| 20260508011106 | 74 | 21 | 3.0 | 5.0 | 0.00 | 0.00 | 0.00 | 71 | 1007.9 |
| 20260508011003 | 74 | 38 | 4.0 | 5.0 | 0.00 | 0.00 | 0.00 | 71 | 1007.9 |
| 20260508010903 | 74 | 41 | 4.0 | 5.0 | 0.00 | 0.00 | 0.00 | 71 | 1007.8 |
| 20260508010804 | 74 | 38 | 3.0 | 5.0 | 0.00 | 0.00 | 0.00 | 71 | 1007.9 |
| 20260508010702 | 74 | 27 | 3.0 | 5.0 | 0.00 | 0.00 | 0.00 | 71 | 1007.9 |
| 20260508010603 | 74 | 17 | 2.0 | 4.0 | 0.00 | 0.00 | 0.00 | 71 | 1007.9 |
| 20260508010504 | 74 | 28 | 2.0 | 4.0 | 0.00 | 0.00 | 0.00 | 71 | 1007.8 |
| 20260508010404 | 74 | 28 | 1.0 | 4.0 | 0.00 | 0.00 | 0.00 | 71 | 1007.9 |
| 20260508010303 | 74 | 27 | 0.0 | 4.0 | 0.00 | 0.00 | 0.00 | 71 | 1007.8 |
| 20260508010201 | 74 | 27 | 0.0 | 4.0 | 0.00 | 0.00 | 0.00 | 71 | 1007.9 |
| 20260508010105 | 74 | 27 | 1.0 | 4.0 | 0.00 | 0.00 | 0.00 | 71 | 1007.7 |
| 20260508010004 | 74 | 27 | 2.0 | 4.0 | 0.00 | 0.00 | 0.00 | 71 | 1007.8 |
| 20260508005903 | 74 | 25 | 2.0 | 4.0 | 0.00 | 0.00 | 0.00 | 71 | 1007.8 |
| 20260508005802 | 74 | 27 | 3.0 | 4.0 | 0.00 | 0.00 | 0.00 | 70 | 1007.7 |
| 20260508005703 | 75 | 27 | 3.0 | 4.0 | 0.00 | 0.00 | 0.00 | 70 | 1007.8 |
| 20260508005602 | 75 | 354 | 3.0 | 4.0 | 0.00 | 0.00 | 0.00 | 70 | 1007.8 |
| 20260508005502 | 75 | 25 | 3.0 | 6.0 | 0.00 | 0.00 | 0.00 | 70 | 1007.8 |
| 20260508005403 | 75 | 27 | 2.0 | 6.0 | 0.00 | 0.00 | 0.00 | 70 | 1007.8 |
| 20260508005305 | 75 | 18 | 2.0 | 6.0 | 0.00 | 0.00 | 0.00 | 70 | 1007.7 |
| 20260508005204 | 75 | 18 | 2.0 | 6.0 | 0.00 | 0.00 | 0.00 | 70 | 1007.7 |
| 20260508005103 | 75 | 23 | 2.0 | 6.0 | 0.00 | 0.00 | 0.00 | 70 | 1007.8 |
| 20260508005004 | 75 | 23 | 3.0 | 6.0 | 0.00 | 0.00 | 0.00 | 70 | 1007.8 |
| 20260508004905 | 75 | 10 | 3.0 | 6.0 | 0.00 | 0.00 | 0.00 | 69 | 1007.9 |
| 20260508004803 | 75 | 13 | 3.0 | 7.0 | 0.00 | 0.00 | 0.00 | 69 | 1007.9 |
| 20260508004702 | 75 | 35 | 4.0 | 9.0 | 0.00 | 0.00 | 0.00 | 69 | 1007.8 |
| 20260508004602 | 75 | 37 | 4.0 | 9.0 | 0.00 | 0.00 | 0.00 | 69 | 1007.7 |
| 20260508004503 | 75 | 24 | 4.0 | 9.0 | 0.00 | 0.00 | 0.00 | 69 | 1007.8 |
| 20260508004402 | 75 | 41 | 3.0 | 9.0 | 0.00 | 0.00 | 0.00 | 69 | 1007.8 |
| 20260508004303 | 75 | 4 | 3.0 | 9.0 | 0.00 | 0.00 | 0.00 | 69 | 1007.8 |
| 20260508004202 | 75 | 24 | 4.0 | 9.0 | 0.00 | 0.00 | 0.00 | 69 | 1007.9 |
| 20260508004102 | 75 | 25 | 5.0 | 9.0 | 0.00 | 0.00 | 0.00 | 69 | 1007.9 |
| 20260508004003 | 75 | 1 | 5.0 | 9.0 | 0.00 | 0.00 | 0.00 | 69 | 1007.9 |
| 20260508003903 | 75 | 1 | 5.0 | 9.0 | 0.00 | 0.00 | 0.00 | 69 | 1007.8 |
| 20260508003804 | 75 | 14 | 5.0 | 9.0 | 0.00 | 0.00 | 0.00 | 69 | 1007.8 |
| 20260508003705 | 75 | 1 | 4.0 | 9.0 | 0.00 | 0.00 | 0.00 | 69 | 1007.8 |
| 20260508003603 | 75 | 10 | 6.0 | 9.0 | 0.00 | 0.00 | 0.00 | 69 | 1007.8 |
| 20260508003504 | 75 | 11 | 6.0 | 9.0 | 0.00 | 0.00 | 0.00 | 69 | 1007.8 |
| 20260508003403 | 75 | 30 | 5.0 | 9.0 | 0.00 | 0.00 | 0.00 | 69 | 1007.9 |
| 20260508003303 | 75 | 1 | 5.0 | 9.0 | 0.00 | 0.00 | 0.00 | 69 | 1007.7 |
| 20260508003203 | 75 | 17 | 4.0 | 9.0 | 0.00 | 0.00 | 0.00 | 69 | 1007.8 |
| 20260508003102 | 75 | 8 | 5.0 | 9.0 | 0.00 | 0.00 | 0.00 | 69 | 1007.8 |
| 20260508003003 | 75 | 3 | 5.0 | 9.0 | 0.00 | 0.00 | 0.00 | 69 | 1007.8 |
| 20260508002903 | 75 | 18 | 5.0 | 9.0 | 0.00 | 0.00 | 0.00 | 70 | 1007.7 |
| 20260508002803 | 75 | 20 | 4.0 | 9.0 | 0.00 | 0.00 | 0.00 | 70 | 1007.7 |
| 20260508002703 | 75 | 16 | 4.0 | 9.0 | 0.00 | 0.00 | 0.00 | 70 | 1007.7 |
| 20260508002603 | 75 | 7 | 5.0 | 9.0 | 0.00 | 0.00 | 0.00 | 70 | 1007.7 |
| 20260508002504 | 75 | 16 | 5.0 | 9.0 | 0.00 | 0.00 | 0.00 | 69 | 1007.8 |
| 20260508002404 | 75 | 0 | 5.0 | 7.0 | 0.00 | 0.00 | 0.00 | 69 | 1007.8 |
| 20260508002306 | 75 | 11 | 5.0 | 9.0 | 0.00 | 0.00 | 0.00 | 69 | 1007.8 |
| 20260508002204 | 75 | 27 | 4.0 | 9.0 | 0.00 | 0.00 | 0.00 | 69 | 1007.9 |
| 20260508002102 | 75 | 0 | 4.0 | 10.0 | 0.00 | 0.00 | 0.00 | 69 | 1007.8 |
| 20260508002003 | 75 | 1 | 5.0 | 10.0 | 0.00 | 0.00 | 0.00 | 69 | 1007.7 |
| 20260508001902 | 75 | 14 | 6.0 | 10.0 | 0.00 | 0.00 | 0.00 | 69 | 1007.8 |
| 20260508001803 | 75 | 6 | 6.0 | 11.0 | 0.00 | 0.00 | 0.00 | 69 | 1007.7 |
| 20260508001702 | 75 | 348 | 5.0 | 11.0 | 0.00 | 0.00 | 0.00 | 69 | 1007.7 |
| 20260508001602 | 75 | 32 | 5.0 | 11.0 | 0.00 | 0.00 | 0.00 | 69 | 1007.7 |
| 20260508001504 | 76 | 28 | 5.0 | 11.0 | 0.00 | 0.00 | 0.00 | 69 | 1007.7 |
| 20260508001402 | 76 | 0 | 6.0 | 11.0 | 0.00 | 0.00 | 0.00 | 69 | 1007.8 |
| 20260508001303 | 76 | 0 | 6.0 | 11.0 | 0.00 | 0.00 | 0.00 | 69 | 1007.7 |
| 20260508001201 | 76 | 358 | 6.0 | 11.0 | 0.00 | 0.00 | 0.00 | 69 | 1007.7 |
| 20260508001102 | 76 | 0 | 6.0 | 11.0 | 0.00 | 0.00 | 0.00 | 69 | 1007.9 |
| 20260508001001 | 76 | 8 | 7.0 | 11.0 | 0.00 | 0.00 | 0.00 | 69 | 1007.9 |
| 20260508000903 | 76 | 6 | 6.0 | 11.0 | 0.00 | 0.00 | 0.00 | 69 | 1008.0 |
| 20260508000804 | 76 | 343 | 6.0 | 11.0 | 0.00 | 0.00 | 0.00 | 69 | 1008.0 |
| 20260508000704 | 76 | 340 | 7.0 | 11.0 | 0.00 | 0.00 | 0.00 | 69 | 1008.0 |
| 20260508000603 | 76 | 0 | 6.0 | 11.0 | 0.00 | 0.00 | 0.00 | 69 | 1008.0 |
| 20260508000504 | 76 | 1 | 5.0 | 11.0 | 0.00 | 0.00 | 0.00 | 70 | 1008.0 |
| 20260508000404 | 76 | 17 | 5.0 | 11.0 | 0.00 | 0.00 | 0.00 | 70 | 1008.0 |
| 20260508000305 | 76 | 0 | 6.0 | 11.0 | 0.00 | 0.00 | 0.00 | 70 | 1007.9 |
| 20260508000205 | 76 | 0 | 6.0 | 11.0 | 0.00 | 0.00 | 0.00 | 70 | 1008.0 |
| 20260508000104 | 76 | 1 | 5.0 | 9.0 | 0.00 | 0.00 | 0.00 | 70 | 1008.0 |
| 20260508000003 | 76 | 1 | 5.0 | 9.0 | 0.00 | 0.00 | 0.00 | 70 | 1008.0 |
| 20260507235903 | 76 | 21 | 4.0 | 9.0 | 0.00 | 0.00 | 0.00 | 70 | 1007.9 |
| 20260507235801 | 76 | 0 | 6.0 | 9.0 | 0.00 | 0.00 | 0.00 | 70 | 1008.0 |
| 20260507235704 | 76 | 355 | 6.0 | 9.0 | 0.00 | 0.00 | 0.00 | 70 | 1008.0 |
| 20260507235604 | 76 | 0 | 6.0 | 9.0 | 0.00 | 0.00 | 0.00 | 70 | 1008.0 |
| 20260507235503 | 76 | 30 | 7.0 | 9.0 | 0.00 | 0.00 | 0.00 | 70 | 1008.1 |
| 20260507235404 | 76 | 0 | 6.0 | 9.0 | 0.00 | 0.00 | 0.00 | 70 | 1008.2 |
| 20260507235306 | 76 | 0 | 5.0 | 9.0 | 0.00 | 0.00 | 0.00 | 70 | 1008.1 |
| 20260507235204 | 76 | 25 | 6.0 | 11.0 | 0.00 | 0.00 | 0.00 | 70 | 1008.1 |
| 20260507235103 | 76 | 17 | 5.0 | 11.0 | 0.00 | 0.00 | 0.00 | 71 | 1008.0 |
| 20260507235005 | 76 | 8 | 5.0 | 11.0 | 0.00 | 0.00 | 0.00 | 71 | 1008.0 |
| 20260507234905 | 76 | 357 | 5.0 | 11.0 | 0.00 | 0.00 | 0.00 | 71 | 1008.0 |
| 20260507234803 | 76 | 0 | 4.0 | 11.0 | 0.00 | 0.00 | 0.00 | 71 | 1008.1 |
| 20260507234702 | 76 | 13 | 5.0 | 11.0 | 0.00 | 0.00 | 0.00 | 71 | 1008.0 |
| 20260507234603 | 76 | 0 | 5.0 | 11.0 | 0.00 | 0.00 | 0.00 | 70 | 1008.1 |
| 20260507234505 | 76 | 357 | 6.0 | 11.0 | 0.00 | 0.00 | 0.00 | 70 | 1008.1 |
| 20260507234403 | 76 | 14 | 7.0 | 11.0 | 0.00 | 0.00 | 0.00 | 70 | 1008.2 |
| 20260507234302 | 76 | 13 | 6.0 | 11.0 | 0.00 | 0.00 | 0.00 | 71 | 1008.2 |
| 20260507234203 | 76 | 14 | 7.0 | 10.0 | 0.00 | 0.00 | 0.00 | 72 | 1008.2 |
| 20260507234103 | 76 | 6 | 6.0 | 10.0 | 0.00 | 0.00 | 0.00 | 72 | 1008.1 |
| 20260507234003 | 76 | 10 | 5.0 | 11.0 | 0.00 | 0.00 | 0.00 | 72 | 1008.2 |
| 20260507233903 | 76 | 10 | 5.0 | 11.0 | 0.00 | 0.00 | 0.00 | 72 | 1008.1 |
| 20260507233803 | 76 | 350 | 5.0 | 11.0 | 0.00 | 0.00 | 0.00 | 71 | 1008.1 |
| 20260507233704 | 76 | 347 | 5.0 | 11.0 | 0.00 | 0.00 | 0.00 | 72 | 1008.2 |
| 20260507233603 | 76 | 10 | 5.0 | 11.0 | 0.00 | 0.00 | 0.00 | 72 | 1008.2 |
| 20260507233504 | 76 | 341 | 6.0 | 11.0 | 0.00 | 0.00 | 0.00 | 72 | 1008.1 |
| 20260507233402 | 76 | 0 | 6.0 | 11.0 | 0.00 | 0.00 | 0.00 | 72 | 1008.1 |
| 20260507233302 | 76 | 348 | 6.0 | 11.0 | 0.00 | 0.00 | 0.00 | 72 | 1008.1 |
| 20260507233203 | 76 | 329 | 7.0 | 11.0 | 0.00 | 0.00 | 0.00 | 72 | 1008.1 |
| 20260507233104 | 76 | 0 | 9.0 | 11.0 | 0.00 | 0.00 | 0.00 | 72 | 1008.0 |
| 20260507233005 | 76 | 338 | 8.0 | 11.0 | 0.00 | 0.00 | 0.00 | 72 | 1008.1 |
| 20260507232902 | 76 | 351 | 6.0 | 10.0 | 0.00 | 0.00 | 0.00 | 72 | 1008.1 |
| 20260507232804 | 76 | 331 | 6.0 | 10.0 | 0.00 | 0.00 | 0.00 | 72 | 1008.0 |
| 20260507232703 | 76 | 337 | 7.0 | 10.0 | 0.00 | 0.00 | 0.00 | 72 | 1008.0 |
| 20260507232602 | 76 | 333 | 8.0 | 10.0 | 0.00 | 0.00 | 0.00 | 72 | 1008.0 |
| 20260507232504 | 76 | 336 | 7.0 | 10.0 | 0.00 | 0.00 | 0.00 | 72 | 1008.0 |
| 20260507232401 | 76 | 343 | 8.0 | 10.0 | 0.00 | 0.00 | 0.00 | 72 | 1007.9 |
| 20260507232306 | 76 | 333 | 8.0 | 10.0 | 0.00 | 0.00 | 0.00 | 72 | 1008.0 |
| 20260507232202 | 76 | 331 | 7.0 | 10.0 | 0.00 | 0.00 | 0.00 | 72 | 1008.0 |
| 20260507232102 | 76 | 302 | 6.0 | 10.0 | 0.00 | 0.00 | 0.00 | 72 | 1007.9 |
| 20260507232004 | 76 | 333 | 7.0 | 10.0 | 0.00 | 0.00 | 0.00 | 72 | 1007.9 |
| 20260507231902 | 76 | 355 | 7.0 | 10.0 | 0.00 | 0.00 | 0.00 | 72 | 1007.8 |
| 20260507231801 | 76 | 345 | 6.0 | 9.0 | 0.00 | 0.00 | 0.00 | 72 | 1007.8 |
| 20260507231702 | 76 | 314 | 6.0 | 9.0 | 0.00 | 0.00 | 0.00 | 72 | 1007.8 |
| 20260507231603 | 76 | 348 | 7.0 | 9.0 | 0.00 | 0.00 | 0.00 | 72 | 1007.7 |
| 20260507231504 | 76 | 341 | 7.0 | 9.0 | 0.00 | 0.00 | 0.00 | 72 | 1007.7 |
| 20260507231403 | 76 | 344 | 6.0 | 9.0 | 0.00 | 0.00 | 0.00 | 72 | 1007.7 |
| 20260507231304 | 76 | 320 | 6.0 | 9.0 | 0.00 | 0.00 | 0.00 | 72 | 1007.7 |
| 20260507231202 | 76 | 333 | 6.0 | 10.0 | 0.00 | 0.00 | 0.00 | 72 | 1007.7 |
| 20260507231103 | 76 | 341 | 6.0 | 11.0 | 0.00 | 0.00 | 0.00 | 71 | 1007.8 |
| 20260507231005 | 76 | 316 | 6.0 | 11.0 | 0.00 | 0.00 | 0.00 | 72 | 1007.8 |
| 20260507230902 | 77 | 334 | 6.0 | 11.0 | 0.00 | 0.00 | 0.00 | 71 | 1007.8 |
| 20260507230804 | 77 | 338 | 4.0 | 11.0 | 0.00 | 0.00 | 0.00 | 71 | 1007.8 |
| 20260507230704 | 77 | 6 | 5.0 | 11.0 | 0.00 | 0.00 | 0.00 | 71 | 1007.8 |
| 20260507230601 | 77 | 0 | 6.0 | 11.0 | 0.00 | 0.00 | 0.00 | 71 | 1007.7 |
| 20260507230504 | 77 | 0 | 7.0 | 11.0 | 0.00 | 0.00 | 0.00 | 71 | 1007.7 |
| 20260507230405 | 77 | 348 | 8.0 | 11.0 | 0.00 | 0.00 | 0.00 | 72 | 1007.7 |
| 20260507230303 | 77 | 348 | 8.0 | 11.0 | 0.00 | 0.00 | 0.00 | 72 | 1007.7 |
| 20260507230203 | 77 | 345 | 9.0 | 12.0 | 0.00 | 0.00 | 0.00 | 71 | 1007.6 |
| 20260507230003 | 77 | 326 | 7.0 | 12.0 | 0.00 | 0.00 | 0.00 | 72 | 1007.6 |
| 20260507225904 | 77 | 0 | 5.0 | 12.0 | 0.00 | 0.00 | 0.00 | 72 | 1007.5 |
| 20260507225804 | 77 | 348 | 5.0 | 12.0 | 0.00 | 0.00 | 0.00 | 72 | 1007.4 |
| 20260507225704 | 77 | 0 | 6.0 | 12.0 | 0.00 | 0.00 | 0.00 | 72 | 1007.4 |
| 20260507225602 | 77 | 0 | 7.0 | 12.0 | 0.00 | 0.00 | 0.00 | 71 | 1007.5 |
| 20260507225504 | 77 | 0 | 8.0 | 12.0 | 0.00 | 0.00 | 0.00 | 71 | 1007.4 |
| 20260507225403 | 77 | 0 | 8.0 | 12.0 | 0.00 | 0.00 | 0.00 | 71 | 1007.4 |
| 20260507225306 | 77 | 344 | 7.0 | 12.0 | 0.00 | 0.00 | 0.00 | 71 | 1007.4 |
| 20260507225202 | 77 | 334 | 7.0 | 11.0 | 0.00 | 0.00 | 0.00 | 71 | 1007.4 |
| 20260507225103 | 77 | 337 | 8.0 | 11.0 | 0.00 | 0.00 | 0.00 | 71 | 1007.5 |
| 20260507225003 | 77 | 345 | 7.0 | 10.0 | 0.00 | 0.00 | 0.00 | 71 | 1007.4 |
| 20260507224902 | 77 | 323 | 7.0 | 10.0 | 0.00 | 0.00 | 0.00 | 71 | 1007.5 |
| 20260507224802 | 78 | 334 | 6.0 | 10.0 | 0.00 | 0.00 | 0.00 | 72 | 1007.5 |
| 20260507224704 | 77 | 348 | 5.0 | 10.0 | 0.00 | 0.00 | 0.00 | 71 | 1007.5 |
| 20260507224604 | 77 | 0 | 6.0 | 13.0 | 0.00 | 0.00 | 0.00 | 71 | 1007.5 |
| 20260507224504 | 77 | 0 | 6.0 | 13.0 | 0.00 | 0.00 | 0.00 | 71 | 1007.5 |
| 20260507224403 | 77 | 357 | 6.0 | 13.0 | 0.00 | 0.00 | 0.00 | 71 | 1007.4 |
| 20260507224303 | 77 | 358 | 7.0 | 13.0 | 0.00 | 0.00 | 0.00 | 71 | 1007.4 |
| 20260507224202 | 77 | 337 | 6.0 | 13.0 | 0.00 | 0.00 | 0.00 | 72 | 1007.4 |
| 20260507224102 | 77 | 347 | 7.0 | 13.0 | 0.00 | 0.00 | 0.00 | 72 | 1007.4 |
| 20260507224003 | 77 | 336 | 7.0 | 13.0 | 0.00 | 0.00 | 0.00 | 72 | 1007.4 |
| 20260507223902 | 77 | 338 | 7.0 | 13.0 | 0.00 | 0.00 | 0.00 | 72 | 1007.4 |
| 20260507223804 | 77 | 348 | 6.0 | 13.0 | 0.00 | 0.00 | 0.00 | 72 | 1007.3 |
| 20260507223703 | 77 | 347 | 5.0 | 13.0 | 0.00 | 0.00 | 0.00 | 72 | 1007.3 |
| 20260507223602 | 77 | 0 | 4.0 | 9.0 | 0.00 | 0.00 | 0.00 | 72 | 1007.3 |
| 20260507223504 | 77 | 4 | 5.0 | 9.0 | 0.00 | 0.00 | 0.00 | 72 | 1007.3 |
| 20260507223404 | 77 | 8 | 5.0 | 11.0 | 0.00 | 0.00 | 0.00 | 72 | 1007.4 |
| 20260507223302 | 77 | 20 | 5.0 | 11.0 | 0.00 | 0.00 | 0.00 | 73 | 1007.2 |
| 20260507223202 | 77 | 343 | 4.0 | 11.0 | 0.00 | 0.00 | 0.00 | 73 | 1007.3 |
| 20260507223102 | 77 | 16 | 4.0 | 11.0 | 0.00 | 0.00 | 0.00 | 72 | 1007.2 |
| 20260507223004 | 77 | 18 | 4.0 | 11.0 | 0.00 | 0.00 | 0.00 | 72 | 1007.2 |
| 20260507222904 | 77 | 8 | 5.0 | 11.0 | 0.00 | 0.00 | 0.00 | 72 | 1007.2 |
| 20260507222803 | 77 | 347 | 6.0 | 11.0 | 0.00 | 0.00 | 0.00 | 72 | 1007.2 |
| 20260507222704 | 77 | 338 | 6.0 | 11.0 | 0.00 | 0.00 | 0.00 | 72 | 1007.2 |
| 20260507222602 | 77 | 347 | 7.0 | 11.0 | 0.00 | 0.00 | 0.00 | 71 | 1007.2 |
| 20260507222503 | 77 | 355 | 6.0 | 11.0 | 0.00 | 0.00 | 0.00 | 72 | 1007.1 |
| 20260507222401 | 77 | 348 | 5.0 | 11.0 | 0.00 | 0.00 | 0.00 | 72 | 1007.2 |
| 20260507222306 | 77 | 0 | 4.0 | 11.0 | 0.00 | 0.00 | 0.00 | 72 | 1007.2 |
| 20260507222204 | 77 | 25 | 4.0 | 11.0 | 0.00 | 0.00 | 0.00 | 72 | 1007.2 |
| 20260507222103 | 77 | 17 | 5.0 | 11.0 | 0.00 | 0.00 | 0.00 | 72 | 1007.2 |
| 20260507222004 | 77 | 0 | 5.0 | 11.0 | 0.00 | 0.00 | 0.00 | 72 | 1007.2 |
| 20260507221902 | 77 | 44 | 5.0 | 11.0 | 0.00 | 0.00 | 0.00 | 72 | 1007.2 |
| 20260507221802 | 77 | 0 | 5.0 | 11.0 | 0.00 | 0.00 | 0.00 | 72 | 1007.2 |
| 20260507221702 | 77 | 30 | 5.0 | 11.0 | 0.00 | 0.00 | 0.00 | 71 | 1007.2 |
| 20260507221604 | 77 | 0 | 4.0 | 10.0 | 0.00 | 0.00 | 0.00 | 71 | 1007.2 |
| 20260507221503 | 77 | 7 | 5.0 | 10.0 | 0.00 | 0.00 | 0.00 | 71 | 1007.2 |
| 20260507221404 | 77 | 18 | 6.0 | 10.0 | 0.00 | 0.00 | 0.00 | 72 | 1007.3 |
| 20260507221304 | 77 | 7 | 6.0 | 10.0 | 0.00 | 0.00 | 0.00 | 72 | 1007.2 |
| 20260507221203 | 77 | 21 | 4.0 | 10.0 | 0.00 | 0.00 | 0.00 | 72 | 1007.2 |
| 20260507221104 | 77 | 0 | 5.0 | 10.0 | 0.00 | 0.00 | 0.00 | 72 | 1007.2 |
| 20260507221003 | 77 | 0 | 6.0 | 10.0 | 0.00 | 0.00 | 0.00 | 72 | 1007.3 |
| 20260507220902 | 77 | 20 | 6.0 | 10.0 | 0.00 | 0.00 | 0.00 | 73 | 1007.3 |
| 20260507220802 | 77 | 0 | 4.0 | 10.0 | 0.00 | 0.00 | 0.00 | 73 | 1007.3 |
| 20260507220703 | 77 | 14 | 4.0 | 10.0 | 0.00 | 0.00 | 0.00 | 72 | 1007.3 |
| 20260507220603 | 77 | 14 | 6.0 | 10.0 | 0.00 | 0.00 | 0.00 | 72 | 1007.4 |
| 20260507220504 | 77 | 13 | 6.0 | 10.0 | 0.00 | 0.00 | 0.00 | 72 | 1007.4 |
| 20260507220401 | 77 | 8 | 5.0 | 10.0 | 0.00 | 0.00 | 0.00 | 72 | 1007.3 |
| 20260507220302 | 76 | 309 | 4.0 | 10.0 | 0.00 | 0.00 | 0.00 | 73 | 1007.5 |
| 20260507220203 | 76 | 4 | 5.0 | 10.0 | 0.00 | 0.00 | 0.00 | 72 | 1007.5 |
| 20260507220104 | 76 | 0 | 5.0 | 10.0 | 0.00 | 0.00 | 0.00 | 73 | 1007.5 |
| 20260507220003 | 76 | 7 | 5.0 | 9.0 | 0.00 | 0.00 | 0.00 | 73 | 1007.5 |
| 20260507215903 | 76 | 343 | 5.0 | 9.0 | 0.00 | 0.00 | 0.00 | 72 | 1007.6 |
| 20260507215804 | 76 | 14 | 6.0 | 9.0 | 0.00 | 0.00 | 0.00 | 72 | 1007.6 |
| 20260507215704 | 76 | 354 | 6.0 | 9.0 | 0.00 | 0.00 | 0.00 | 72 | 1007.6 |
| 20260507215603 | 76 | 6 | 6.0 | 9.0 | 0.00 | 0.00 | 0.00 | 73 | 1007.6 |
| 20260507215502 | 76 | 0 | 6.0 | 9.0 | 0.00 | 0.00 | 0.00 | 72 | 1007.6 |
| 20260507215404 | 76 | 0 | 5.0 | 7.0 | 0.00 | 0.00 | 0.00 | 72 | 1007.6 |
| 20260507215306 | 76 | 354 | 6.0 | 7.0 | 0.00 | 0.00 | 0.00 | 72 | 1007.7 |
| 20260507215202 | 76 | 331 | 5.0 | 11.0 | 0.00 | 0.00 | 0.00 | 72 | 1007.7 |
| 20260507215103 | 76 | 10 | 5.0 | 11.0 | 0.00 | 0.00 | 0.00 | 72 | 1007.7 |
| 20260507215003 | 76 | 1 | 5.0 | 11.0 | 0.00 | 0.00 | 0.00 | 73 | 1007.7 |
| 20260507214904 | 76 | 0 | 4.0 | 11.0 | 0.00 | 0.00 | 0.00 | 73 | 1007.7 |
| 20260507214804 | 76 | 8 | 5.0 | 11.0 | 0.00 | 0.00 | 0.00 | 73 | 1007.7 |
| 20260507214701 | 76 | 1 | 5.0 | 11.0 | 0.00 | 0.00 | 0.00 | 73 | 1007.7 |
| 20260507214604 | 76 | 30 | 5.0 | 11.0 | 0.00 | 0.00 | 0.00 | 72 | 1007.7 |
| 20260507214502 | 76 | 1 | 6.0 | 11.0 | 0.00 | 0.00 | 0.00 | 72 | 1007.7 |
| 20260507214404 | 76 | 343 | 7.0 | 11.0 | 0.00 | 0.00 | 0.00 | 72 | 1007.7 |
| 20260507214302 | 76 | 6 | 6.0 | 11.0 | 0.00 | 0.00 | 0.00 | 72 | 1007.7 |
| 20260507214202 | 76 | 0 | 5.0 | 11.0 | 0.00 | 0.00 | 0.00 | 72 | 1007.7 |
| 20260507214103 | 76 | 353 | 6.0 | 11.0 | 0.00 | 0.00 | 0.00 | 72 | 1007.8 |
| 20260507214003 | 76 | 0 | 7.0 | 11.0 | 0.00 | 0.00 | 0.00 | 72 | 1007.8 |
| 20260507213903 | 76 | 347 | 7.0 | 11.0 | 0.00 | 0.00 | 0.00 | 72 | 1007.9 |
| 20260507213804 | 76 | 343 | 8.0 | 11.0 | 0.00 | 0.00 | 0.00 | 72 | 1008.0 |
| 20260507213702 | 76 | 347 | 8.0 | 11.0 | 0.00 | 0.00 | 0.00 | 72 | 1007.9 |
| 20260507213604 | 77 | 340 | 7.0 | 11.0 | 0.00 | 0.00 | 0.00 | 72 | 1007.9 |
| 20260507213504 | 77 | 357 | 7.0 | 11.0 | 0.00 | 0.00 | 0.00 | 72 | 1007.9 |
| 20260507213402 | 77 | 35 | 6.0 | 11.0 | 0.00 | 0.00 | 0.00 | 73 | 1007.9 |
| 20260507213303 | 77 | 351 | 5.0 | 11.0 | 0.00 | 0.00 | 0.00 | 72 | 1008.0 |
| 20260507213201 | 77 | 357 | 5.0 | 11.0 | 0.00 | 0.00 | 0.00 | 72 | 1007.9 |
| 20260507213102 | 77 | 18 | 4.0 | 11.0 | 0.00 | 0.00 | 0.00 | 72 | 1007.9 |
| 20260507213003 | 77 | 326 | 4.0 | 11.0 | 0.00 | 0.00 | 0.00 | 72 | 1007.8 |
| 20260507212905 | 77 | 321 | 5.0 | 11.0 | 0.00 | 0.00 | 0.00 | 73 | 1007.8 |
| 20260507212803 | 77 | 333 | 6.0 | 11.0 | 0.00 | 0.00 | 0.00 | 72 | 1007.8 |
| 20260507212703 | 77 | 3 | 6.0 | 11.0 | 0.00 | 0.00 | 0.00 | 72 | 1007.8 |
| 20260507212602 | 76 | 17 | 6.0 | 11.0 | 0.00 | 0.00 | 0.00 | 72 | 1007.9 |
| 20260507212505 | 76 | 0 | 6.0 | 11.0 | 0.00 | 0.00 | 0.00 | 72 | 1007.9 |
| 20260507212403 | 76 | 333 | 7.0 | 11.0 | 0.00 | 0.00 | 0.00 | 72 | 1008.0 |
| 20260507212306 | 76 | 351 | 7.0 | 11.0 | 0.00 | 0.00 | 0.00 | 72 | 1008.0 |
| 20260507212203 | 76 | 358 | 6.0 | 11.0 | 0.00 | 0.00 | 0.00 | 72 | 1008.1 |
| 20260507212103 | 76 | 0 | 5.0 | 11.0 | 0.00 | 0.00 | 0.00 | 73 | 1008.1 |
| 20260507212005 | 76 | 0 | 6.0 | 11.0 | 0.00 | 0.00 | 0.00 | 72 | 1008.1 |
| 20260507211903 | 76 | 333 | 6.0 | 11.0 | 0.00 | 0.00 | 0.00 | 72 | 1008.0 |
| 20260507211803 | 76 | 0 | 6.0 | 11.0 | 0.00 | 0.00 | 0.00 | 72 | 1008.1 |
| 20260507211704 | 76 | 16 | 7.0 | 11.0 | 0.00 | 0.00 | 0.00 | 72 | 1008.0 |
| 20260507211602 | 76 | 14 | 8.0 | 11.0 | 0.00 | 0.00 | 0.00 | 72 | 1008.0 |
| 20260507211503 | 76 | 357 | 7.0 | 11.0 | 0.00 | 0.00 | 0.00 | 72 | 1008.0 |
| 20260507211403 | 76 | 344 | 7.0 | 12.0 | 0.00 | 0.00 | 0.00 | 72 | 1008.0 |
| 20260507211304 | 77 | 334 | 5.0 | 12.0 | 0.00 | 0.00 | 0.00 | 72 | 1008.1 |
| 20260507211204 | 77 | 0 | 6.0 | 12.0 | 0.00 | 0.00 | 0.00 | 71 | 1008.0 |
| 20260507211104 | 77 | 354 | 7.0 | 12.0 | 0.00 | 0.00 | 0.00 | 71 | 1008.0 |
| 20260507211004 | 77 | 21 | 8.0 | 12.0 | 0.00 | 0.00 | 0.00 | 72 | 1008.1 |
| 20260507210903 | 77 | 350 | 8.0 | 12.0 | 0.00 | 0.00 | 0.00 | 72 | 1008.0 |
| 20260507210803 | 77 | 296 | 6.0 | 12.0 | 0.00 | 0.00 | 0.00 | 72 | 1008.1 |
| 20260507210703 | 77 | 317 | 6.0 | 12.0 | 0.00 | 0.00 | 0.00 | 72 | 1008.0 |
| 20260507210602 | 77 | 334 | 7.0 | 12.0 | 0.00 | 0.00 | 0.00 | 72 | 1008.1 |
| 20260507210503 | 77 | 1 | 8.0 | 12.0 | 0.00 | 0.00 | 0.00 | 72 | 1008.2 |
| 20260507210402 | 77 | 0 | 8.0 | 11.0 | 0.00 | 0.00 | 0.00 | 72 | 1008.2 |
| 20260507210303 | 76 | 16 | 6.0 | 11.0 | 0.00 | 0.00 | 0.00 | 73 | 1008.2 |
| 20260507210203 | 76 | 338 | 4.0 | 11.0 | 0.00 | 0.00 | 0.00 | 72 | 1008.1 |
| 20260507210103 | 76 | 0 | 6.0 | 11.0 | 0.00 | 0.00 | 0.00 | 71 | 1008.1 |
| 20260507205959 | 77 | 347 | 8.0 | 11.0 | 0.00 | 0.00 | 0.00 | 71 | 1008.2 |
| 20260507205850 | 77 | 334 | 8.0 | 11.0 | 0.00 | 0.00 | 0.00 | 73 | 1008.2 |
| 20260507205748 | 76 | 351 | 7.0 | 10.0 | 0.00 | 0.00 | 0.00 | 72 | 1008.2 |
| 20260507205647 | 76 | 354 | 7.0 | 10.0 | 0.00 | 0.00 | 0.00 | 72 | 1008.2 |
| 20260507205543 | 77 | 0 | 7.0 | 10.0 | 0.00 | 0.00 | 0.00 | 72 | 1008.3 |
| 20260507205439 | 76 | 317 | 7.0 | 10.0 | 0.00 | 0.00 | 0.00 | 73 | 1008.2 |
| 20260507205338 | 77 | 345 | 7.0 | 10.0 | 0.00 | 0.00 | 0.00 | 72 | 1008.2 |
| 20260507205237 | 76 | 348 | 6.0 | 10.0 | 0.00 | 0.00 | 0.00 | 72 | 1008.2 |
| 20260507205138 | 76 | 351 | 6.0 | 10.0 | 0.00 | 0.00 | 0.00 | 73 | 1008.2 |
| 20260507205037 | 76 | 354 | 6.0 | 10.0 | 0.00 | 0.00 | 0.00 | 71 | 1008.2 |
| 20260507204937 | 77 | 355 | 6.0 | 10.0 | 0.00 | 0.00 | 0.00 | 72 | 1008.2 |
| 20260507204838 | 77 | 347 | 4.0 | 10.0 | 0.00 | 0.00 | 0.00 | 73 | 1008.3 |
| 20260507204739 | 77 | 18 | 5.0 | 10.0 | 0.00 | 0.00 | 0.00 | 71 | 1008.3 |
| 20260507204637 | 77 | 13 | 7.0 | 10.0 | 0.00 | 0.00 | 0.00 | 72 | 1008.3 |
| 20260507204538 | 77 | 18 | 7.0 | 10.0 | 0.00 | 0.00 | 0.00 | 73 | 1008.3 |
| 20260507204436 | 77 | 1 | 6.0 | 10.0 | 0.00 | 0.00 | 0.00 | 72 | 1008.4 |
| 20260507204336 | 77 | 4 | 6.0 | 10.0 | 0.00 | 0.00 | 0.00 | 72 | 1008.3 |
| 20260507204237 | 77 | 28 | 6.0 | 10.0 | 0.00 | 0.00 | 0.00 | 73 | 1008.3 |
| 20260507204138 | 77 | 7 | 5.0 | 10.0 | 0.00 | 0.00 | 0.00 | 73 | 1008.3 |
| 20260507204038 | 77 | 347 | 6.0 | 10.0 | 0.00 | 0.00 | 0.00 | 73 | 1008.3 |
| 20260507203937 | 77 | 0 | 5.0 | 10.0 | 0.00 | 0.00 | 0.00 | 73 | 1008.4 |
| 20260507203838 | 76 | 351 | 5.0 | 10.0 | 0.00 | 0.00 | 0.00 | 74 | 1008.4 |
| 20260507203737 | 76 | 351 | 6.0 | 10.0 | 0.00 | 0.00 | 0.00 | 73 | 1008.3 |
| 20260507203637 | 76 | 3 | 7.0 | 10.0 | 0.00 | 0.00 | 0.00 | 73 | 1008.4 |
| 20260507203537 | 76 | 320 | 8.0 | 10.0 | 0.00 | 0.00 | 0.00 | 73 | 1008.3 |
| 20260507203438 | 76 | 8 | 5.0 | 10.0 | 0.00 | 0.00 | 0.00 | 73 | 1008.3 |
| 20260507203338 | 76 | 0 | 3.0 | 10.0 | 0.00 | 0.00 | 0.00 | 73 | 1008.3 |
| 20260507203238 | 76 | 0 | 4.0 | 10.0 | 0.00 | 0.00 | 0.00 | 73 | 1008.3 |
| 20260507203137 | 76 | 3 | 5.0 | 10.0 | 0.00 | 0.00 | 0.00 | 72 | 1008.3 |
| 20260507203039 | 76 | 0 | 6.0 | 10.0 | 0.00 | 0.00 | 0.00 | 72 | 1008.3 |
| 20260507202937 | 76 | 3 | 6.0 | 10.0 | 0.00 | 0.00 | 0.00 | 73 | 1008.3 |
| 20260507202835 | 76 | 13 | 6.0 | 10.0 | 0.00 | 0.00 | 0.00 | 73 | 1008.3 |
| 20260507202735 | 76 | 21 | 4.0 | 10.0 | 0.00 | 0.00 | 0.00 | 73 | 1008.2 |
| 20260507202639 | 76 | 0 | 3.0 | 9.0 | 0.00 | 0.00 | 0.00 | 72 | 1008.2 |
| 20260507202536 | 76 | 38 | 3.0 | 9.0 | 0.00 | 0.00 | 0.00 | 74 | 1008.3 |
| 20260507202437 | 76 | 30 | 5.0 | 9.0 | 0.00 | 0.00 | 0.00 | 74 | 1008.3 |
| 20260507202334 | 76 | 30 | 5.0 | 9.0 | 0.00 | 0.00 | 0.00 | 74 | 1008.3 |
| 20260507202234 | 76 | 30 | 5.0 | 9.0 | 0.00 | 0.00 | 0.00 | 74 | 1008.2 |
| 20260507202134 | 76 | 30 | 5.0 | 9.0 | 0.00 | 0.00 | 0.00 | 74 | 1008.3 |
| 20260507202034 | 76 | 30 | 5.0 | 9.0 | 0.00 | 0.00 | 0.00 | 74 | 1008.3 |
| 20260507201934 | 76 | 30 | 5.0 | 9.0 | 0.00 | 0.00 | 0.00 | 74 | 1008.4 |
| 20260507201834 | 76 | 30 | 5.0 | 9.0 | 0.00 | 0.00 | 0.00 | 74 | 1008.4 |
| 20260507201735 | 76 | 0 | 4.0 | 9.0 | 0.00 | 0.00 | 0.00 | 73 | 1008.4 |
| 20260507201636 | 76 | 344 | 4.0 | 9.0 | 0.00 | 0.00 | 0.00 | 73 | 1008.5 |
| 20260507201534 | 76 | 0 | 4.0 | 10.0 | 0.00 | 0.00 | 0.00 | 72 | 1008.4 |
| 20260507201434 | 76 | 358 | 3.0 | 10.0 | 0.00 | 0.00 | 0.00 | 72 | 1008.5 |
| 20260507201334 | 76 | 11 | 3.0 | 10.0 | 0.00 | 0.00 | 0.00 | 72 | 1008.5 |
| 20260507201234 | 76 | 32 | 4.0 | 10.0 | 0.00 | 0.00 | 0.00 | 73 | 1008.5 |
| 20260507201136 | 76 | 24 | 5.0 | 10.0 | 0.00 | 0.00 | 0.00 | 74 | 1008.5 |
| 20260507201033 | 76 | 62 | 6.0 | 10.0 | 0.00 | 0.00 | 0.00 | 73 | 1008.5 |
| 20260507200934 | 76 | 7 | 6.0 | 10.0 | 0.00 | 0.00 | 0.00 | 73 | 1008.6 |
| 20260507200834 | 76 | 8 | 4.0 | 10.0 | 0.00 | 0.00 | 0.00 | 74 | 1008.6 |
| 20260507200735 | 76 | 109 | 5.0 | 11.0 | 0.00 | 0.00 | 0.00 | 73 | 1008.5 |
| 20260507200634 | 75 | 353 | 6.0 | 11.0 | 0.00 | 0.00 | 0.00 | 73 | 1008.6 |
| 20260507200534 | 75 | 4 | 4.0 | 11.0 | 0.00 | 0.00 | 0.00 | 73 | 1008.6 |
| 20260507200433 | 75 | 25 | 3.0 | 11.0 | 0.00 | 0.00 | 0.00 | 73 | 1008.6 |
| 20260507200333 | 75 | 20 | 4.0 | 11.0 | 0.00 | 0.00 | 0.00 | 73 | 1008.5 |
| 20260507200234 | 75 | 34 | 4.0 | 11.0 | 0.00 | 0.00 | 0.00 | 73 | 1008.5 |
| 20260507200134 | 75 | 348 | 4.0 | 11.0 | 0.00 | 0.00 | 0.00 | 73 | 1008.5 |
| 20260507200034 | 75 | 35 | 6.0 | 11.0 | 0.00 | 0.00 | 0.00 | 73 | 1008.6 |
| 20260507195933 | 75 | 0 | 7.0 | 11.0 | 0.00 | 0.00 | 0.00 | 73 | 1008.5 |
| 20260507195833 | 75 | 3 | 8.0 | 11.0 | 0.00 | 0.00 | 0.00 | 73 | 1008.5 |
| 20260507195733 | 75 | 13 | 6.0 | 10.0 | 0.00 | 0.00 | 0.00 | 73 | 1008.6 |
| 20260507195633 | 75 | 0 | 5.0 | 10.0 | 0.00 | 0.00 | 0.00 | 73 | 1008.6 |
| 20260507195533 | 75 | 32 | 4.0 | 10.0 | 0.00 | 0.00 | 0.00 | 73 | 1008.6 |
| 20260507195433 | 75 | 25 | 5.0 | 10.0 | 0.00 | 0.00 | 0.00 | 73 | 1008.6 |
| 20260507195333 | 75 | 21 | 6.0 | 10.0 | 0.00 | 0.00 | 0.00 | 73 | 1008.6 |
| 20260507195233 | 75 | 47 | 5.0 | 10.0 | 0.00 | 0.00 | 0.00 | 73 | 1008.6 |
| 20260507195133 | 75 | 54 | 4.0 | 10.0 | 0.00 | 0.00 | 0.00 | 74 | 1008.6 |
| 20260507195034 | 75 | 51 | 4.0 | 11.0 | 0.00 | 0.00 | 0.00 | 74 | 1008.7 |
| 20260507194933 | 75 | 38 | 6.0 | 11.0 | 0.00 | 0.00 | 0.00 | 74 | 1008.6 |
| 20260507194833 | 74 | 51 | 6.0 | 11.0 | 0.00 | 0.00 | 0.00 | 75 | 1008.6 |
| 20260507194733 | 74 | 3 | 5.0 | 11.0 | 0.00 | 0.00 | 0.00 | 74 | 1008.5 |
| 20260507194633 | 74 | 350 | 5.0 | 11.0 | 0.00 | 0.00 | 0.00 | 74 | 1008.5 |
| 20260507194533 | 74 | 0 | 6.0 | 12.0 | 0.00 | 0.00 | 0.00 | 73 | 1008.6 |
| 20260507194434 | 74 | 30 | 6.0 | 12.0 | 0.00 | 0.00 | 0.00 | 74 | 1008.6 |
| 20260507194333 | 74 | 6 | 5.0 | 12.0 | 0.00 | 0.00 | 0.00 | 74 | 1008.6 |
| 20260507194233 | 74 | 25 | 5.0 | 12.0 | 0.00 | 0.00 | 0.00 | 74 | 1008.6 |
| 20260507194133 | 74 | 42 | 6.0 | 12.0 | 0.00 | 0.00 | 0.00 | 74 | 1008.6 |
| 20260507194034 | 74 | 61 | 8.0 | 12.0 | 0.00 | 0.00 | 0.00 | 74 | 1008.6 |
| 20260507193933 | 74 | 1 | 6.0 | 12.0 | 0.00 | 0.00 | 0.00 | 75 | 1008.6 |
| 20260507193833 | 74 | 0 | 5.0 | 12.0 | 0.00 | 0.00 | 0.00 | 75 | 1008.7 |
| 20260507193732 | 74 | 1 | 6.0 | 12.0 | 0.00 | 0.00 | 0.00 | 75 | 1008.7 |
| 20260507193633 | 74 | 0 | 5.0 | 12.0 | 0.00 | 0.00 | 0.00 | 75 | 1008.7 |
| 20260507193528 | 74 | 31 | 4.0 | 11.0 | 0.00 | 0.00 | 0.00 | 74 | 1008.7 |
| 20260507193426 | 74 | 8 | 5.0 | 11.0 | 0.00 | 0.00 | 0.00 | 74 | 1008.7 |
| 20260507193323 | 74 | 73 | 6.0 | 11.0 | 0.00 | 0.00 | 0.00 | 74 | 1008.8 |
| 20260507193223 | 74 | 0 | 7.0 | 11.0 | 0.00 | 0.00 | 0.00 | 74 | 1008.8 |
| 20260507193121 | 74 | 1 | 6.0 | 11.0 | 0.00 | 0.00 | 0.00 | 75 | 1008.8 |
| 20260507193020 | 74 | 0 | 4.0 | 11.0 | 0.00 | 0.00 | 0.00 | 75 | 1008.8 |
| 20260507192917 | 73 | 16 | 4.0 | 11.0 | 0.00 | 0.00 | 0.00 | 74 | 1008.9 |
| 20260507192818 | 73 | 32 | 6.0 | 11.0 | 0.00 | 0.00 | 0.00 | 74 | 1009.0 |
| 20260507192713 | 74 | 13 | 7.0 | 11.0 | 0.00 | 0.00 | 0.00 | 75 | 1009.0 |
| 20260507192611 | 73 | 25 | 7.0 | 11.0 | 0.00 | 0.00 | 0.00 | 74 | 1009.0 |
| 20260507192508 | 73 | 16 | 7.0 | 11.0 | 0.00 | 0.00 | 0.00 | 74 | 1009.1 |
| 20260507192405 | 73 | 17 | 5.0 | 11.0 | 0.00 | 0.00 | 0.00 | 75 | 1009.1 |
| 20260507192306 | 73 | 358 | 6.0 | 11.0 | 0.00 | 0.00 | 0.00 | 75 | 1009.1 |
| 20260507192203 | 73 | 27 | 7.0 | 11.0 | 0.00 | 0.00 | 0.00 | 75 | 1009.1 |
| 20260507192103 | 73 | 341 | 5.0 | 11.0 | 0.00 | 0.00 | 0.00 | 75 | 1009.2 |
| 20260507192002 | 73 | 14 | 4.0 | 11.0 | 0.00 | 0.00 | 0.00 | 76 | 1009.2 |
| 20260507191902 | 73 | 4 | 4.0 | 11.0 | 0.00 | 0.00 | 0.00 | 76 | 1009.3 |
| 20260507191802 | 73 | 336 | 6.0 | 11.0 | 0.00 | 0.00 | 0.00 | 75 | 1009.3 |
| 20260507191704 | 73 | 0 | 6.0 | 11.0 | 0.00 | 0.00 | 0.00 | 75 | 1009.3 |
| 20260507191604 | 73 | 27 | 7.0 | 11.0 | 0.00 | 0.00 | 0.00 | 76 | 1009.3 |
| 20260507191502 | 73 | 13 | 8.0 | 11.0 | 0.00 | 0.00 | 0.00 | 76 | 1009.5 |
| 20260507191403 | 72 | 353 | 7.0 | 11.0 | 0.00 | 0.00 | 0.00 | 76 | 1009.4 |
| 20260507191302 | 72 | 337 | 6.0 | 10.0 | 0.00 | 0.00 | 0.00 | 76 | 1009.4 |
| 20260507191202 | 72 | 347 | 7.0 | 10.0 | 0.00 | 0.00 | 0.00 | 75 | 1009.4 |
| 20260507191102 | 72 | 340 | 8.0 | 12.0 | 0.00 | 0.00 | 0.00 | 75 | 1009.4 |
| 20260507191004 | 72 | 351 | 7.0 | 12.0 | 0.00 | 0.00 | 0.00 | 75 | 1009.5 |
| 20260507190902 | 72 | 345 | 6.0 | 12.0 | 0.00 | 0.00 | 0.00 | 75 | 1009.5 |
| 20260507190803 | 72 | 31 | 6.0 | 12.0 | 0.00 | 0.00 | 0.00 | 75 | 1009.6 |
| 20260507190702 | 72 | 351 | 6.0 | 12.0 | 0.00 | 0.00 | 0.00 | 76 | 1009.5 |
| 20260507190603 | 72 | 1 | 7.0 | 12.0 | 0.00 | 0.00 | 0.00 | 75 | 1009.6 |
| 20260507190504 | 72 | 49 | 7.0 | 12.0 | 0.00 | 0.00 | 0.00 | 76 | 1009.6 |
| 20260507190402 | 72 | 336 | 6.0 | 12.0 | 0.00 | 0.00 | 0.00 | 76 | 1009.6 |
| 20260507190304 | 72 | 344 | 7.0 | 12.0 | 0.00 | 0.00 | 0.00 | 76 | 1009.6 |
| 20260507190204 | 72 | 350 | 7.0 | 12.0 | 0.00 | 0.00 | 0.00 | 76 | 1009.6 |
| 20260507190005 | 72 | 10 | 8.0 | 13.0 | 0.00 | 0.00 | 0.00 | 76 | 1009.6 |
| 20260507185903 | 72 | 0 | 8.0 | 13.0 | 0.00 | 0.00 | 0.00 | 75 | 1009.6 |
| 20260507185803 | 72 | 0 | 8.0 | 13.0 | 0.00 | 0.00 | 0.00 | 75 | 1009.6 |
| 20260507185703 | 72 | 331 | 9.0 | 13.0 | 0.00 | 0.00 | 0.00 | 76 | 1009.6 |
| 20260507185603 | 72 | 353 | 8.0 | 13.0 | 0.00 | 0.00 | 0.00 | 76 | 1009.7 |
| 20260507185505 | 72 | 340 | 6.0 | 13.0 | 0.00 | 0.00 | 0.00 | 76 | 1009.6 |
| 20260507185402 | 72 | 333 | 6.0 | 13.0 | 0.00 | 0.00 | 0.00 | 76 | 1009.6 |
| 20260507185305 | 72 | 324 | 9.0 | 13.0 | 0.00 | 0.00 | 0.00 | 75 | 1009.7 |
| 20260507185203 | 72 | 357 | 8.0 | 13.0 | 0.00 | 0.00 | 0.00 | 75 | 1009.6 |
| 20260507185103 | 72 | 358 | 9.0 | 13.0 | 0.00 | 0.00 | 0.00 | 75 | 1009.6 |
| 20260507185004 | 73 | 347 | 10.0 | 13.0 | 0.00 | 0.00 | 0.00 | 76 | 1009.7 |
| 20260507184902 | 73 | 340 | 8.0 | 13.0 | 0.00 | 0.00 | 0.00 | 76 | 1009.7 |
| 20260507184804 | 72 | 0 | 6.0 | 13.0 | 0.00 | 0.00 | 0.00 | 76 | 1009.8 |
| 20260507184702 | 72 | 353 | 7.0 | 13.0 | 0.00 | 0.00 | 0.00 | 77 | 1009.8 |
| 20260507184604 | 72 | 341 | 8.0 | 13.0 | 0.00 | 0.00 | 0.00 | 77 | 1009.9 |
| 20260507184502 | 72 | 341 | 8.0 | 13.0 | 0.00 | 0.00 | 0.00 | 75 | 1009.8 |
| 20260507184403 | 72 | 0 | 8.0 | 13.0 | 0.00 | 0.00 | 0.00 | 75 | 1009.8 |
| 20260507184304 | 72 | 336 | 7.0 | 13.0 | 0.00 | 0.00 | 0.00 | 76 | 1009.9 |
| 20260507184202 | 72 | 321 | 7.0 | 13.0 | 0.00 | 0.00 | 0.00 | 76 | 1009.9 |
| 20260507184103 | 72 | 345 | 9.0 | 13.0 | 0.00 | 0.00 | 0.00 | 77 | 1009.9 |
| 20260507184002 | 72 | 347 | 6.0 | 13.0 | 0.00 | 0.00 | 0.00 | 77 | 1009.9 |
| 20260507183904 | 71 | 344 | 7.0 | 13.0 | 0.00 | 0.00 | 0.00 | 77 | 1009.8 |
| 20260507183804 | 71 | 313 | 9.0 | 13.0 | 0.00 | 0.00 | 0.00 | 77 | 1009.8 |
| 20260507183702 | 71 | 351 | 9.0 | 13.0 | 0.00 | 0.00 | 0.00 | 76 | 1009.9 |
| 20260507183601 | 71 | 344 | 9.0 | 13.0 | 0.00 | 0.00 | 0.00 | 76 | 1009.9 |
| 20260507183502 | 71 | 10 | 10.0 | 13.0 | 0.00 | 0.00 | 0.00 | 76 | 1009.9 |
| 20260507183404 | 71 | 321 | 9.0 | 13.0 | 0.00 | 0.00 | 0.00 | 76 | 1009.8 |
| 20260507183304 | 71 | 355 | 9.0 | 14.0 | 0.00 | 0.00 | 0.00 | 76 | 1009.8 |
| 20260507183204 | 71 | 357 | 8.0 | 14.0 | 0.00 | 0.00 | 0.00 | 76 | 1009.8 |
| 20260507183104 | 71 | 350 | 9.0 | 14.0 | 0.00 | 0.00 | 0.00 | 77 | 1009.9 |
| 20260507183002 | 71 | 338 | 8.0 | 14.0 | 0.00 | 0.00 | 0.00 | 78 | 1009.9 |
| 20260507182904 | 71 | 337 | 6.0 | 14.0 | 0.00 | 0.00 | 0.00 | 78 | 1009.9 |
| 20260507182802 | 71 | 0 | 8.0 | 14.0 | 0.00 | 0.00 | 0.00 | 77 | 1009.9 |
| 20260507182702 | 71 | 27 | 10.0 | 14.0 | 0.00 | 0.00 | 0.00 | 77 | 1010.0 |
| 20260507182603 | 70 | 331 | 10.0 | 14.0 | 0.00 | 0.00 | 0.00 | 77 | 1010.1 |
| 20260507182502 | 70 | 353 | 11.0 | 14.0 | 0.00 | 0.00 | 0.00 | 77 | 1010.0 |
| 20260507182404 | 70 | 344 | 10.0 | 14.0 | 0.00 | 0.00 | 0.00 | 77 | 1010.0 |
| 20260507182306 | 70 | 337 | 8.0 | 13.0 | 0.00 | 0.00 | 0.00 | 77 | 1010.1 |
| 20260507182203 | 70 | 348 | 8.0 | 13.0 | 0.00 | 0.00 | 0.00 | 77 | 1010.1 |
| 20260507182102 | 70 | 345 | 7.0 | 13.0 | 0.00 | 0.00 | 0.00 | 78 | 1010.1 |
| 20260507182004 | 70 | 3 | 8.0 | 13.0 | 0.00 | 0.00 | 0.00 | 78 | 1010.0 |
| 20260507181904 | 70 | 343 | 8.0 | 13.0 | 0.00 | 0.00 | 0.00 | 78 | 1010.0 |
| 20260507181801 | 70 | 0 | 9.0 | 13.0 | 0.00 | 0.00 | 0.00 | 77 | 1010.0 |
| 20260507181703 | 70 | 355 | 10.0 | 13.0 | 0.00 | 0.00 | 0.00 | 77 | 1010.0 |
| 20260507181602 | 70 | 340 | 9.0 | 13.0 | 0.00 | 0.00 | 0.00 | 78 | 1010.1 |
| 20260507181504 | 70 | 338 | 8.0 | 13.0 | 0.00 | 0.00 | 0.00 | 77 | 1010.0 |
| 20260507181403 | 70 | 6 | 8.0 | 13.0 | 0.00 | 0.00 | 0.00 | 77 | 1010.0 |
| 20260507181302 | 70 | 347 | 7.0 | 13.0 | 0.00 | 0.00 | 0.00 | 78 | 1010.0 |
| 20260507181204 | 70 | 344 | 9.0 | 13.0 | 0.00 | 0.00 | 0.00 | 77 | 1009.9 |
| 20260507181104 | 70 | 343 | 10.0 | 13.0 | 0.00 | 0.00 | 0.00 | 77 | 1010.1 |
| 20260507181004 | 70 | 323 | 9.0 | 12.0 | 0.00 | 0.00 | 0.00 | 78 | 1010.1 |
| 20260507180903 | 70 | 0 | 8.0 | 12.0 | 0.00 | 0.00 | 0.00 | 78 | 1010.0 |
| 20260507180803 | 70 | 3 | 6.0 | 12.0 | 0.00 | 0.00 | 0.00 | 78 | 1010.0 |
| 20260507180704 | 69 | 355 | 6.0 | 12.0 | 0.00 | 0.00 | 0.00 | 77 | 1010.0 |
| 20260507180603 | 69 | 0 | 8.0 | 12.0 | 0.00 | 0.00 | 0.00 | 78 | 1010.0 |
| 20260507180503 | 69 | 0 | 8.0 | 12.0 | 0.00 | 0.00 | 0.00 | 78 | 1010.1 |
| 20260507180405 | 70 | 344 | 8.0 | 12.0 | 0.00 | 0.00 | 0.00 | 78 | 1010.0 |
| 20260507180302 | 70 | 331 | 7.0 | 14.0 | 0.00 | 0.00 | 0.00 | 77 | 1010.1 |
| 20260507180203 | 70 | 323 | 9.0 | 15.0 | 0.00 | 0.00 | 0.00 | 77 | 1010.0 |
| 20260507180004 | 70 | 0 | 9.0 | 15.0 | 0.00 | 0.00 | 0.00 | 78 | 1010.1 |
| 20260507175903 | 69 | 0 | 8.0 | 15.0 | 0.00 | 0.00 | 0.00 | 78 | 1010.0 |
| 20260507175803 | 69 | 1 | 8.0 | 15.0 | 0.00 | 0.00 | 0.00 | 78 | 1010.1 |
| 20260507175703 | 69 | 4 | 8.0 | 15.0 | 0.00 | 0.00 | 0.00 | 79 | 1010.1 |
| 20260507175603 | 69 | 351 | 8.0 | 15.0 | 0.00 | 0.00 | 0.00 | 78 | 1010.2 |
| 20260507175504 | 69 | 351 | 10.0 | 15.0 | 0.00 | 0.00 | 0.00 | 78 | 1010.1 |
| 20260507175403 | 69 | 351 | 11.0 | 15.0 | 0.00 | 0.00 | 0.00 | 78 | 1010.2 |
| 20260507175306 | 69 | 350 | 9.0 | 15.0 | 0.00 | 0.00 | 0.00 | 79 | 1010.2 |
| 20260507175203 | 69 | 340 | 7.0 | 14.0 | 0.00 | 0.00 | 0.00 | 78 | 1010.3 |
| 20260507175103 | 69 | 316 | 7.0 | 14.0 | 0.00 | 0.00 | 0.00 | 78 | 1010.3 |
| 20260507175004 | 69 | 39 | 8.0 | 14.0 | 0.00 | 0.00 | 0.00 | 78 | 1010.4 |
| 20260507174903 | 69 | 0 | 9.0 | 14.0 | 0.00 | 0.00 | 0.00 | 78 | 1010.4 |
| 20260507174802 | 69 | 353 | 9.0 | 14.0 | 0.00 | 0.00 | 0.00 | 78 | 1010.4 |
| 20260507174702 | 69 | 351 | 8.0 | 14.0 | 0.00 | 0.00 | 0.00 | 78 | 1010.3 |
| 20260507174602 | 69 | 0 | 8.0 | 14.0 | 0.00 | 0.00 | 0.00 | 79 | 1010.3 |
| 20260507174505 | 69 | 358 | 9.0 | 14.0 | 0.00 | 0.00 | 0.00 | 79 | 1010.3 |
| 20260507174403 | 69 | 327 | 11.0 | 14.0 | 0.00 | 0.00 | 0.00 | 79 | 1010.4 |
| 20260507174303 | 69 | 348 | 10.0 | 14.0 | 0.00 | 0.00 | 0.00 | 79 | 1010.3 |
| 20260507174203 | 69 | 343 | 7.0 | 14.0 | 0.00 | 0.00 | 0.00 | 78 | 1010.3 |
| 20260507174103 | 69 | 324 | 6.0 | 14.0 | 0.00 | 0.00 | 0.00 | 78 | 1010.4 |
| 20260507174001 | 69 | 14 | 6.0 | 14.0 | 0.00 | 0.00 | 0.00 | 79 | 1010.4 |
| 20260507173902 | 69 | 343 | 8.0 | 14.0 | 0.00 | 0.00 | 0.00 | 79 | 1010.5 |
| 20260507173803 | 69 | 348 | 9.0 | 14.0 | 0.00 | 0.00 | 0.00 | 79 | 1010.4 |
| 20260507173702 | 69 | 344 | 9.0 | 14.0 | 0.00 | 0.00 | 0.00 | 79 | 1010.4 |
| 20260507173604 | 69 | 344 | 10.0 | 14.0 | 0.00 | 0.00 | 0.00 | 79 | 1010.5 |
| 20260507173503 | 68 | 327 | 10.0 | 14.0 | 0.00 | 0.00 | 0.00 | 79 | 1010.4 |
| 20260507173402 | 68 | 358 | 10.0 | 13.0 | 0.00 | 0.00 | 0.00 | 79 | 1010.4 |
| 20260507173302 | 68 | 338 | 8.0 | 13.0 | 0.00 | 0.00 | 0.00 | 79 | 1010.4 |
| 20260507173202 | 68 | 324 | 8.0 | 11.0 | 0.00 | 0.00 | 0.00 | 79 | 1010.5 |
| 20260507173102 | 68 | 338 | 9.0 | 11.0 | 0.00 | 0.00 | 0.00 | 79 | 1010.5 |
| 20260507173002 | 68 | 337 | 9.0 | 12.0 | 0.00 | 0.00 | 0.00 | 79 | 1010.4 |
| 20260507172904 | 68 | 350 | 9.0 | 12.0 | 0.00 | 0.00 | 0.00 | 79 | 1010.5 |
| 20260507172804 | 68 | 340 | 8.0 | 12.0 | 0.00 | 0.00 | 0.00 | 80 | 1010.5 |
| 20260507172703 | 68 | 326 | 6.0 | 12.0 | 0.00 | 0.00 | 0.00 | 80 | 1010.6 |
| 20260507172603 | 68 | 0 | 6.0 | 12.0 | 0.00 | 0.00 | 0.00 | 79 | 1010.7 |
| 20260507172504 | 68 | 323 | 7.0 | 12.0 | 0.00 | 0.00 | 0.00 | 79 | 1010.6 |
| 20260507172404 | 68 | 331 | 7.0 | 12.0 | 0.00 | 0.00 | 0.00 | 79 | 1010.7 |
| 20260507172307 | 68 | 336 | 9.0 | 12.0 | 0.00 | 0.00 | 0.00 | 79 | 1010.7 |
| 20260507172204 | 68 | 317 | 9.0 | 12.0 | 0.00 | 0.00 | 0.00 | 79 | 1010.8 |
| 20260507172103 | 68 | 337 | 8.0 | 12.0 | 0.00 | 0.00 | 0.00 | 79 | 1010.8 |
| 20260507172004 | 68 | 348 | 7.0 | 12.0 | 0.00 | 0.00 | 0.00 | 79 | 1010.8 |
| 20260507171903 | 68 | 341 | 6.0 | 11.0 | 0.00 | 0.00 | 0.00 | 80 | 1010.7 |
| 20260507171803 | 68 | 320 | 6.0 | 11.0 | 0.00 | 0.00 | 0.00 | 79 | 1010.7 |
| 20260507171703 | 68 | 353 | 7.0 | 11.0 | 0.00 | 0.00 | 0.00 | 79 | 1010.7 |
| 20260507171602 | 68 | 0 | 7.0 | 11.0 | 0.00 | 0.00 | 0.00 | 79 | 1010.8 |
| 20260507171502 | 68 | 344 | 7.0 | 11.0 | 0.00 | 0.00 | 0.00 | 80 | 1010.7 |
| 20260507171404 | 68 | 340 | 7.0 | 12.0 | 0.00 | 0.00 | 0.00 | 79 | 1010.7 |
| 20260507171303 | 67 | 316 | 7.0 | 12.0 | 0.00 | 0.00 | 0.00 | 79 | 1010.8 |
| 20260507171202 | 67 | 345 | 7.0 | 12.0 | 0.00 | 0.00 | 0.00 | 79 | 1010.8 |
| 20260507171104 | 67 | 353 | 6.0 | 12.0 | 0.00 | 0.00 | 0.00 | 79 | 1010.7 |
| 20260507171004 | 67 | 345 | 7.0 | 12.0 | 0.00 | 0.00 | 0.00 | 80 | 1010.8 |
| 20260507170902 | 67 | 23 | 7.0 | 12.0 | 0.00 | 0.00 | 0.00 | 79 | 1010.8 |
| 20260507170802 | 67 | 10 | 7.0 | 12.0 | 0.00 | 0.00 | 0.00 | 80 | 1010.9 |
| 20260507170703 | 67 | 0 | 7.0 | 12.0 | 0.00 | 0.00 | 0.00 | 80 | 1010.8 |
| 20260507170603 | 67 | 337 | 8.0 | 12.0 | 0.00 | 0.00 | 0.00 | 80 | 1010.8 |
| 20260507170502 | 67 | 323 | 8.0 | 12.0 | 0.00 | 0.00 | 0.00 | 80 | 1010.8 |
| 20260507170404 | 67 | 333 | 7.0 | 11.0 | 0.00 | 0.00 | 0.00 | 80 | 1010.8 |
| 20260507170303 | 67 | 345 | 7.0 | 12.0 | 0.00 | 0.00 | 0.00 | 80 | 1010.9 |
| 20260507170203 | 67 | 302 | 7.0 | 12.0 | 0.00 | 0.00 | 0.00 | 80 | 1011.0 |
| 20260507170103 | 67 | 285 | 7.0 | 12.0 | 0.00 | 0.00 | 0.00 | 80 | 1011.0 |
| 20260507170003 | 67 | 306 | 8.0 | 12.0 | 0.00 | 0.00 | 0.00 | 80 | 1011.0 |
| 20260507165903 | 67 | 334 | 9.0 | 12.0 | 0.00 | 0.00 | 0.00 | 80 | 1010.9 |
| 20260507165803 | 67 | 321 | 8.0 | 12.0 | 0.00 | 0.00 | 0.00 | 80 | 1010.9 |
| 20260507165702 | 67 | 348 | 8.0 | 12.0 | 0.00 | 0.00 | 0.00 | 79 | 1010.9 |
| 20260507165602 | 67 | 343 | 8.0 | 12.0 | 0.00 | 0.00 | 0.00 | 80 | 1010.9 |
| 20260507165505 | 67 | 312 | 9.0 | 12.0 | 0.00 | 0.00 | 0.00 | 80 | 1010.9 |
| 20260507165405 | 67 | 350 | 9.0 | 12.0 | 0.00 | 0.00 | 0.00 | 80 | 1010.9 |
| 20260507165302 | 67 | 355 | 7.0 | 12.0 | 0.00 | 0.00 | 0.00 | 80 | 1010.9 |
| 20260507165203 | 67 | 334 | 6.0 | 12.0 | 0.00 | 0.00 | 0.00 | 80 | 1010.8 |
| 20260507165104 | 67 | 306 | 6.0 | 12.0 | 0.00 | 0.00 | 0.00 | 80 | 1010.9 |
| 20260507165003 | 67 | 338 | 7.0 | 12.0 | 0.00 | 0.00 | 0.00 | 80 | 1010.9 |
| 20260507164903 | 67 | 312 | 8.0 | 12.0 | 0.00 | 0.00 | 0.00 | 80 | 1010.8 |
| 20260507164803 | 67 | 354 | 6.0 | 12.0 | 0.00 | 0.00 | 0.00 | 81 | 1010.8 |
| 20260507164702 | 67 | 0 | 4.0 | 12.0 | 0.00 | 0.00 | 0.00 | 80 | 1010.8 |
| 20260507164602 | 67 | 21 | 6.0 | 12.0 | 0.00 | 0.00 | 0.00 | 80 | 1010.8 |
| 20260507164502 | 67 | 0 | 8.0 | 12.0 | 0.00 | 0.00 | 0.00 | 80 | 1010.8 |
| 20260507164403 | 67 | 0 | 7.0 | 12.0 | 0.00 | 0.00 | 0.00 | 81 | 1010.8 |
| 20260507164304 | 67 | 338 | 6.0 | 11.0 | 0.00 | 0.00 | 0.00 | 81 | 1010.8 |
| 20260507164204 | 66 | 0 | 5.0 | 11.0 | 0.00 | 0.00 | 0.00 | 80 | 1010.8 |
| 20260507164103 | 66 | 327 | 6.0 | 11.0 | 0.00 | 0.00 | 0.00 | 80 | 1010.8 |
| 20260507164003 | 66 | 336 | 7.0 | 11.0 | 0.00 | 0.00 | 0.00 | 80 | 1010.8 |
| 20260507163903 | 66 | 336 | 7.0 | 11.0 | 0.00 | 0.00 | 0.00 | 80 | 1010.8 |
| 20260507163803 | 66 | 341 | 6.0 | 11.0 | 0.00 | 0.00 | 0.00 | 80 | 1010.9 |
| 20260507163703 | 66 | 321 | 4.0 | 9.0 | 0.00 | 0.00 | 0.00 | 80 | 1010.9 |
| 20260507163602 | 66 | 3 | 4.0 | 11.0 | 0.00 | 0.00 | 0.00 | 80 | 1010.8 |
| 20260507163505 | 66 | 16 | 5.0 | 11.0 | 0.00 | 0.00 | 0.00 | 80 | 1010.8 |
| 20260507163402 | 66 | 0 | 6.0 | 11.0 | 0.00 | 0.00 | 0.00 | 80 | 1010.8 |
| 20260507163304 | 67 | 13 | 6.0 | 11.0 | 0.00 | 0.00 | 0.00 | 80 | 1010.8 |
| 20260507163204 | 67 | 18 | 5.0 | 11.0 | 0.00 | 0.00 | 0.00 | 80 | 1010.8 |
| 20260507163102 | 66 | 0 | 4.0 | 11.0 | 0.00 | 0.00 | 0.00 | 80 | 1010.8 |
| 20260507163003 | 66 | 357 | 5.0 | 11.0 | 0.00 | 0.00 | 0.00 | 80 | 1010.8 |
| 20260507162903 | 67 | 340 | 6.0 | 11.0 | 0.00 | 0.00 | 0.00 | 80 | 1010.6 |
| 20260507162802 | 67 | 7 | 7.0 | 11.0 | 0.00 | 0.00 | 0.00 | 80 | 1010.6 |
| 20260507162704 | 67 | 331 | 7.0 | 11.0 | 0.00 | 0.00 | 0.00 | 81 | 1010.6 |
| 20260507162604 | 67 | 0 | 6.0 | 12.0 | 0.00 | 0.00 | 0.00 | 81 | 1010.6 |
| 20260507162503 | 66 | 0 | 6.0 | 12.0 | 0.00 | 0.00 | 0.00 | 81 | 1010.6 |
| 20260507162401 | 66 | 343 | 5.0 | 12.0 | 0.00 | 0.00 | 0.00 | 81 | 1010.6 |
| 20260507162306 | 66 | 13 | 5.0 | 12.0 | 0.00 | 0.00 | 0.00 | 81 | 1010.5 |
| 20260507162204 | 66 | 0 | 6.0 | 12.0 | 0.00 | 0.00 | 0.00 | 81 | 1010.5 |
| 20260507162102 | 66 | 16 | 6.0 | 12.0 | 0.00 | 0.00 | 0.00 | 80 | 1010.5 |
| 20260507162003 | 66 | 16 | 6.0 | 12.0 | 0.00 | 0.00 | 0.00 | 80 | 1010.5 |
| 20260507161902 | 66 | 27 | 6.0 | 13.0 | 0.00 | 0.00 | 0.00 | 80 | 1010.6 |
| 20260507161803 | 66 | 358 | 8.0 | 13.0 | 0.00 | 0.00 | 0.00 | 81 | 1010.6 |
| 20260507161703 | 66 | 355 | 9.0 | 13.0 | 0.00 | 0.00 | 0.00 | 80 | 1010.6 |
| 20260507161602 | 66 | 1 | 9.0 | 13.0 | 0.00 | 0.00 | 0.00 | 80 | 1010.5 |
| 20260507161503 | 66 | 341 | 9.0 | 14.0 | 0.00 | 0.00 | 0.00 | 81 | 1010.5 |
| 20260507161404 | 66 | 0 | 6.0 | 14.0 | 0.00 | 0.00 | 0.00 | 81 | 1010.5 |
| 20260507161305 | 66 | 341 | 5.0 | 14.0 | 0.00 | 0.00 | 0.00 | 81 | 1010.4 |
| 20260507161202 | 66 | 35 | 7.0 | 14.0 | 0.00 | 0.00 | 0.00 | 82 | 1010.4 |
| 20260507161103 | 66 | 4 | 9.0 | 14.0 | 0.00 | 0.00 | 0.00 | 81 | 1010.4 |
| 20260507161003 | 66 | 7 | 8.0 | 14.0 | 0.00 | 0.00 | 0.00 | 82 | 1010.3 |
| 20260507160903 | 66 | 341 | 7.0 | 14.0 | 0.00 | 0.00 | 0.00 | 82 | 1010.3 |
| 20260507160803 | 65 | 23 | 8.0 | 14.0 | 0.00 | 0.00 | 0.00 | 81 | 1010.3 |
| 20260507160704 | 65 | 7 | 8.0 | 14.0 | 0.00 | 0.00 | 0.00 | 81 | 1010.3 |
| 20260507160604 | 65 | 348 | 8.0 | 12.0 | 0.00 | 0.00 | 0.00 | 82 | 1010.3 |
| 20260507160503 | 65 | 0 | 6.0 | 13.0 | 0.00 | 0.00 | 0.00 | 82 | 1010.1 |
| 20260507160404 | 65 | 0 | 7.0 | 13.0 | 0.00 | 0.00 | 0.00 | 82 | 1010.2 |
| 20260507160303 | 65 | 353 | 8.0 | 13.0 | 0.00 | 0.00 | 0.00 | 82 | 1010.2 |
| 20260507160203 | 65 | 357 | 8.0 | 13.0 | 0.00 | 0.00 | 0.00 | 82 | 1010.1 |
| 20260507160104 | 65 | 13 | 8.0 | 13.0 | 0.00 | 0.00 | 0.00 | 82 | 1010.2 |
| 20260507160005 | 65 | 0 | 8.0 | 14.0 | 0.00 | 0.00 | 0.00 | 82 | 1010.2 |
| 20260507155903 | 65 | 348 | 7.0 | 14.0 | 0.00 | 0.00 | 0.00 | 82 | 1010.1 |
| 20260507155802 | 65 | 0 | 7.0 | 14.0 | 0.00 | 0.00 | 0.00 | 82 | 1010.1 |
| 20260507155703 | 65 | 30 | 9.0 | 14.0 | 0.00 | 0.00 | 0.00 | 83 | 1010.1 |
| 20260507155603 | 65 | 25 | 9.0 | 14.0 | 0.00 | 0.00 | 0.00 | 83 | 1010.1 |
| 20260507155504 | 65 | 0 | 8.0 | 14.0 | 0.00 | 0.00 | 0.00 | 82 | 1010.1 |
| 20260507155404 | 65 | 345 | 7.0 | 14.0 | 0.00 | 0.00 | 0.00 | 82 | 1010.1 |
| 20260507155306 | 65 | 338 | 8.0 | 14.0 | 0.00 | 0.00 | 0.00 | 82 | 1010.1 |
| 20260507155204 | 65 | 8 | 10.0 | 14.0 | 0.00 | 0.00 | 0.00 | 82 | 1010.2 |
| 20260507155104 | 65 | 0 | 11.0 | 14.0 | 0.00 | 0.00 | 0.00 | 83 | 1010.3 |
| 20260507155005 | 65 | 354 | 9.0 | 13.0 | 0.00 | 0.00 | 0.00 | 83 | 1010.2 |
| 20260507154902 | 65 | 18 | 9.0 | 12.0 | 0.00 | 0.00 | 0.00 | 83 | 1010.2 |
| 20260507154804 | 65 | 0 | 9.0 | 13.0 | 0.00 | 0.00 | 0.00 | 83 | 1010.2 |
| 20260507154704 | 65 | 331 | 8.0 | 13.0 | 0.00 | 0.00 | 0.00 | 83 | 1010.2 |
| 20260507154604 | 65 | 8 | 7.0 | 13.0 | 0.00 | 0.00 | 0.00 | 83 | 1010.2 |
| 20260507154505 | 65 | 1 | 7.0 | 15.0 | 0.00 | 0.00 | 0.00 | 83 | 1010.2 |
| 20260507154402 | 65 | 4 | 7.0 | 15.0 | 0.00 | 0.00 | 0.00 | 84 | 1010.3 |
| 20260507154302 | 65 | 18 | 6.0 | 15.0 | 0.00 | 0.00 | 0.00 | 84 | 1010.3 |
| 20260507154203 | 65 | 0 | 5.0 | 15.0 | 0.00 | 0.00 | 0.00 | 84 | 1010.4 |
| 20260507154102 | 65 | 337 | 6.0 | 15.0 | 0.00 | 0.00 | 0.00 | 84 | 1010.4 |
| 20260507154004 | 64 | 323 | 9.0 | 15.0 | 0.00 | 0.00 | 0.00 | 84 | 1010.3 |
| 20260507153903 | 64 | 0 | 9.0 | 15.0 | 0.00 | 0.00 | 0.00 | 84 | 1010.2 |
| 20260507153804 | 64 | 7 | 9.0 | 15.0 | 0.00 | 0.00 | 0.00 | 84 | 1010.3 |
| 20260507153703 | 64 | 353 | 10.0 | 15.0 | 0.00 | 0.00 | 0.00 | 85 | 1010.3 |
| 20260507153604 | 64 | 347 | 9.0 | 15.0 | 0.00 | 0.00 | 0.00 | 85 | 1010.3 |
| 20260507153504 | 64 | 37 | 7.0 | 12.0 | 0.00 | 0.00 | 0.00 | 85 | 1010.4 |
| 20260507153401 | 64 | 0 | 7.0 | 12.0 | 0.00 | 0.00 | 0.00 | 85 | 1010.4 |
| 20260507153304 | 64 | 331 | 7.0 | 12.0 | 0.00 | 0.00 | 0.00 | 84 | 1010.3 |
| 20260507153204 | 64 | 350 | 9.0 | 12.0 | 0.00 | 0.00 | 0.00 | 84 | 1010.4 |
| 20260507153103 | 64 | 350 | 8.0 | 12.0 | 0.00 | 0.00 | 0.00 | 85 | 1010.2 |
| 20260507153004 | 64 | 8 | 6.0 | 12.0 | 0.00 | 0.00 | 0.00 | 85 | 1010.3 |
| 20260507152902 | 64 | 11 | 7.0 | 12.0 | 0.00 | 0.00 | 0.00 | 85 | 1010.2 |
| 20260507152803 | 64 | 348 | 9.0 | 12.0 | 0.00 | 0.00 | 0.00 | 85 | 1010.2 |
| 20260507152704 | 64 | 344 | 8.0 | 12.0 | 0.00 | 0.00 | 0.00 | 85 | 1010.4 |
| 20260507152603 | 64 | 3 | 7.0 | 12.0 | 0.00 | 0.00 | 0.00 | 85 | 1010.4 |
| 20260507152502 | 64 | 324 | 8.0 | 12.0 | 0.00 | 0.00 | 0.00 | 85 | 1010.4 |
| 20260507152403 | 64 | 18 | 8.0 | 12.0 | 0.00 | 0.00 | 0.00 | 85 | 1010.4 |
| 20260507152306 | 64 | 16 | 7.0 | 12.0 | 0.00 | 0.00 | 0.00 | 85 | 1010.5 |
| 20260507152203 | 64 | 0 | 8.0 | 12.0 | 0.00 | 0.00 | 0.00 | 85 | 1010.5 |
| 20260507152103 | 64 | 0 | 8.0 | 12.0 | 0.00 | 0.00 | 0.00 | 85 | 1010.5 |
| 20260507151951 | 64 | 345 | 5.0 | 12.0 | 0.00 | 0.00 | 0.00 | 85 | 1010.5 |
| 20260507151849 | 64 | 340 | 7.0 | 12.0 | 0.00 | 0.00 | 0.00 | 85 | 1010.6 |
| 20260507151745 | 63 | 0 | 8.0 | 12.0 | 0.00 | 0.00 | 0.00 | 85 | 1010.6 |
| 20260507151644 | 63 | 0 | 8.0 | 12.0 | 0.00 | 0.00 | 0.00 | 85 | 1010.7 |
| 20260507151542 | 63 | 324 | 8.0 | 12.0 | 0.00 | 0.00 | 0.00 | 85 | 1010.7 |
| 20260507151438 | 63 | 350 | 6.0 | 12.0 | 0.00 | 0.00 | 0.00 | 85 | 1010.7 |
| 20260507151331 | 63 | 343 | 6.0 | 12.0 | 0.00 | 0.00 | 0.00 | 85 | 1010.6 |
| 20260507151231 | 64 | 338 | 8.0 | 12.0 | 0.00 | 0.00 | 0.00 | 85 | 1010.6 |
| 20260507151132 | 64 | 330 | 8.0 | 12.0 | 0.00 | 0.00 | 0.00 | 85 | 1010.5 |
| 20260507151031 | 64 | 343 | 9.0 | 12.0 | 0.00 | 0.00 | 0.00 | 85 | 1010.5 |
| 20260507150931 | 64 | 347 | 9.0 | 12.0 | 0.00 | 0.00 | 0.00 | 84 | 1010.4 |
| 20260507150833 | 64 | 343 | 9.0 | 12.0 | 0.00 | 0.00 | 0.00 | 84 | 1010.5 |
| 20260507150731 | 64 | 326 | 8.0 | 12.0 | 0.00 | 0.00 | 0.00 | 85 | 1010.4 |
| 20260507150631 | 64 | 357 | 8.0 | 12.0 | 0.00 | 0.00 | 0.00 | 85 | 1010.4 |
| 20260507150533 | 64 | 0 | 6.0 | 12.0 | 0.00 | 0.00 | 0.00 | 85 | 1010.5 |
| 20260507150432 | 64 | 0 | 8.0 | 12.0 | 0.00 | 0.00 | 0.00 | 85 | 1010.5 |
| 20260507150331 | 64 | 347 | 8.0 | 12.0 | 0.00 | 0.00 | 0.00 | 84 | 1010.6 |
| 20260507150231 | 64 | 358 | 8.0 | 12.0 | 0.00 | 0.00 | 0.00 | 85 | 1010.7 |
| 20260507150130 | 64 | 355 | 7.0 | 12.0 | 0.00 | 0.00 | 0.00 | 85 | 1010.7 |
| 20260507150031 | 64 | 0 | 7.0 | 12.0 | 0.00 | 0.00 | 0.00 | 84 | 1010.7 |
| 20260507145932 | 64 | 354 | 7.0 | 12.0 | 0.00 | 0.00 | 0.00 | 84 | 1010.7 |
| 20260507145833 | 64 | 0 | 7.0 | 12.0 | 0.00 | 0.00 | 0.00 | 84 | 1010.6 |
| 20260507145731 | 64 | 0 | 8.0 | 12.0 | 0.00 | 0.00 | 0.00 | 85 | 1010.6 |
| 20260507145631 | 64 | 11 | 8.0 | 12.0 | 0.00 | 0.00 | 0.00 | 85 | 1010.6 |
| 20260507145532 | 64 | 0 | 7.0 | 13.0 | 0.00 | 0.00 | 0.00 | 85 | 1010.5 |
| 20260507145432 | 64 | 0 | 6.0 | 13.0 | 0.00 | 0.00 | 0.00 | 85 | 1010.5 |
| 20260507145331 | 64 | 1 | 6.0 | 15.0 | 0.00 | 0.00 | 0.00 | 85 | 1010.6 |
| 20260507145233 | 64 | 0 | 6.0 | 15.0 | 0.00 | 0.00 | 0.00 | 85 | 1010.6 |
| 20260507145131 | 64 | 0 | 6.0 | 15.0 | 0.00 | 0.00 | 0.00 | 85 | 1010.6 |
| 20260507145032 | 64 | 20 | 6.0 | 15.0 | 0.00 | 0.00 | 0.00 | 85 | 1010.6 |
| 20260507144931 | 64 | 13 | 6.0 | 15.0 | 0.00 | 0.00 | 0.00 | 85 | 1010.6 |
| 20260507144828 | 63 | 14 | 7.0 | 15.0 | 0.00 | 0.00 | 0.00 | 85 | 1010.6 |
| 20260507144727 | 63 | 334 | 8.0 | 15.0 | 0.00 | 0.00 | 0.00 | 85 | 1010.6 |
| 20260507144625 | 64 | 0 | 9.0 | 15.0 | 0.00 | 0.00 | 0.00 | 85 | 1010.5 |
| 20260507144528 | 64 | 18 | 9.0 | 15.0 | 0.00 | 0.00 | 0.00 | 85 | 1010.5 |
| 20260507144426 | 63 | 0 | 9.0 | 15.0 | 0.00 | 0.00 | 0.00 | 85 | 1010.7 |
| 20260507144327 | 64 | 0 | 9.0 | 14.0 | 0.00 | 0.00 | 0.00 | 85 | 1010.6 |
| 20260507144227 | 64 | 0 | 8.0 | 14.0 | 0.00 | 0.00 | 0.00 | 85 | 1010.6 |
| 20260507144128 | 64 | 353 | 7.0 | 14.0 | 0.00 | 0.00 | 0.00 | 85 | 1010.7 |
| 20260507144027 | 64 | 0 | 5.0 | 15.0 | 0.00 | 0.00 | 0.00 | 84 | 1010.8 |
| 20260507143928 | 64 | 0 | 5.0 | 15.0 | 0.00 | 0.00 | 0.00 | 84 | 1010.8 |
| 20260507143827 | 63 | 0 | 6.0 | 15.0 | 0.00 | 0.00 | 0.00 | 84 | 1010.8 |
| 20260507143728 | 63 | 27 | 8.0 | 15.0 | 0.00 | 0.00 | 0.00 | 84 | 1010.8 |
| 20260507143628 | 63 | 0 | 9.0 | 15.0 | 0.00 | 0.00 | 0.00 | 84 | 1010.8 |
| 20260507143526 | 64 | 347 | 9.0 | 15.0 | 0.00 | 0.00 | 0.00 | 84 | 1010.8 |
| 20260507143427 | 64 | 1 | 8.0 | 15.0 | 0.00 | 0.00 | 0.00 | 84 | 1010.8 |
| 20260507143327 | 64 | 21 | 9.0 | 15.0 | 0.00 | 0.00 | 0.00 | 84 | 1010.7 |
| 20260507143226 | 64 | 327 | 8.0 | 15.0 | 0.00 | 0.00 | 0.00 | 85 | 1010.6 |
| 20260507143126 | 64 | 345 | 9.0 | 15.0 | 0.00 | 0.00 | 0.00 | 85 | 1010.6 |
| 20260507143026 | 64 | 331 | 8.0 | 14.0 | 0.00 | 0.00 | 0.00 | 85 | 1010.6 |
| 20260507142928 | 64 | 337 | 5.0 | 13.0 | 0.00 | 0.00 | 0.00 | 85 | 1010.4 |
| 20260507142826 | 64 | 18 | 6.0 | 13.0 | 0.00 | 0.00 | 0.00 | 85 | 1010.3 |
| 20260507142727 | 64 | 312 | 6.0 | 16.0 | 0.00 | 0.00 | 0.00 | 85 | 1010.3 |
| 20260507142628 | 64 | 0 | 7.0 | 16.0 | 0.00 | 0.00 | 0.00 | 85 | 1010.4 |
| 20260507142526 | 64 | 1 | 7.0 | 16.0 | 0.00 | 0.00 | 0.00 | 85 | 1010.2 |
| 20260507142427 | 64 | 0 | 5.0 | 16.0 | 0.00 | 0.00 | 0.00 | 85 | 1010.1 |
| 20260507142326 | 64 | 17 | 7.0 | 16.0 | 0.00 | 0.00 | 0.00 | 85 | 1010.3 |
| 20260507142229 | 64 | 0 | 9.0 | 16.0 | 0.00 | 0.00 | 0.00 | 85 | 1010.1 |
| 20260507142125 | 64 | 324 | 8.0 | 16.0 | 0.00 | 0.00 | 0.00 | 85 | 1010.1 |
| 20260507142027 | 64 | 0 | 8.0 | 17.0 | 0.00 | 0.00 | 0.00 | 85 | 1010.1 |
| 20260507141926 | 64 | 0 | 9.0 | 17.0 | 0.00 | 0.00 | 0.00 | 85 | 1010.1 |
| 20260507141825 | 64 | 1 | 7.0 | 17.0 | 0.00 | 0.00 | 0.00 | 85 | 1010.2 |
| 20260507141727 | 64 | 13 | 4.0 | 17.0 | 0.00 | 0.00 | 0.00 | 86 | 1010.1 |
| 20260507141626 | 64 | 354 | 6.0 | 17.0 | 0.00 | 0.00 | 0.00 | 86 | 1010.0 |
| 20260507141527 | 64 | 324 | 7.0 | 17.0 | 0.00 | 0.00 | 0.00 | 86 | 1010.0 |
| 20260507141426 | 64 | 329 | 8.0 | 17.0 | 0.00 | 0.00 | 0.00 | 86 | 1009.9 |
| 20260507141327 | 63 | 0 | 9.0 | 17.0 | 0.00 | 0.00 | 0.00 | 86 | 1009.9 |
| 20260507141227 | 63 | 345 | 9.0 | 17.0 | 0.00 | 0.00 | 0.00 | 86 | 1009.9 |
| 20260507141125 | 63 | 340 | 10.0 | 17.0 | 0.00 | 0.00 | 0.00 | 86 | 1009.8 |
| 20260507141028 | 63 | 337 | 11.0 | 16.0 | 0.00 | 0.00 | 0.00 | 86 | 1009.8 |
| 20260507140926 | 63 | 319 | 11.0 | 16.0 | 0.00 | 0.00 | 0.00 | 86 | 1009.7 |
| 20260507140827 | 63 | 358 | 12.0 | 16.0 | 0.00 | 0.00 | 0.00 | 86 | 1009.7 |
| 20260507140726 | 63 | 0 | 11.0 | 15.0 | 0.00 | 0.00 | 0.00 | 86 | 1009.6 |
| 20260507140626 | 63 | 347 | 11.0 | 15.0 | 0.00 | 0.00 | 0.00 | 86 | 1009.6 |
| 20260507140525 | 64 | 354 | 9.0 | 15.0 | 0.00 | 0.00 | 0.00 | 86 | 1009.6 |
| 20260507140427 | 64 | 331 | 8.0 | 15.0 | 0.00 | 0.00 | 0.00 | 86 | 1009.6 |
| 20260507140327 | 63 | 321 | 10.0 | 16.0 | 0.00 | 0.00 | 0.00 | 87 | 1009.5 |
| 20260507140226 | 63 | 7 | 8.0 | 16.0 | 0.00 | 0.00 | 0.00 | 87 | 1009.4 |
| 20260507140126 | 63 | 358 | 8.0 | 16.0 | 0.00 | 0.00 | 0.00 | 87 | 1009.4 |
| 20260507140026 | 63 | 11 | 10.0 | 16.0 | 0.00 | 0.00 | 0.00 | 87 | 1009.4 |
| 20260507135925 | 63 | 348 | 9.0 | 16.0 | 0.00 | 0.00 | 0.00 | 86 | 1009.4 |
| 20260507135827 | 63 | 350 | 9.0 | 18.0 | 0.00 | 0.00 | 0.00 | 86 | 1009.4 |
| 20260507135726 | 63 | 20 | 11.0 | 18.0 | 0.00 | 0.00 | 0.00 | 86 | 1009.4 |
| 20260507135627 | 63 | 0 | 11.0 | 18.0 | 0.00 | 0.00 | 0.00 | 86 | 1009.5 |
| 20260507135526 | 63 | 340 | 10.0 | 18.0 | 0.00 | 0.00 | 0.00 | 86 | 1009.4 |
| 20260507135425 | 63 | 0 | 11.0 | 18.0 | 0.00 | 0.00 | 0.00 | 86 | 1009.5 |
| 20260507135328 | 63 | 333 | 11.0 | 18.0 | 0.00 | 0.00 | 0.00 | 87 | 1009.6 |
| 20260507135225 | 63 | 340 | 12.0 | 18.0 | 0.00 | 0.00 | 0.00 | 86 | 1009.5 |
| 20260507135127 | 63 | 353 | 13.0 | 18.0 | 0.00 | 0.00 | 0.00 | 86 | 1009.5 |
| 20260507135026 | 63 | 331 | 15.0 | 18.0 | 0.00 | 0.00 | 0.00 | 87 | 1009.7 |
| 20260507134926 | 63 | 338 | 13.0 | 18.0 | 0.00 | 0.00 | 0.00 | 87 | 1009.6 |
| 20260507134827 | 63 | 338 | 11.0 | 18.0 | 0.00 | 0.00 | 0.00 | 86 | 1009.6 |
| 20260507134725 | 63 | 351 | 11.0 | 18.0 | 0.00 | 0.00 | 0.00 | 86 | 1009.6 |
| 20260507134626 | 63 | 11 | 11.0 | 18.0 | 0.00 | 0.00 | 0.00 | 86 | 1009.6 |
| 20260507134525 | 63 | 345 | 13.0 | 18.0 | 0.00 | 0.00 | 0.00 | 86 | 1009.6 |
| 20260507134428 | 63 | 334 | 13.0 | 18.0 | 0.00 | 0.00 | 0.00 | 86 | 1009.6 |
| 20260507134327 | 63 | 351 | 13.0 | 18.0 | 0.00 | 0.00 | 0.00 | 86 | 1009.7 |
| 20260507134227 | 63 | 351 | 11.0 | 18.0 | 0.00 | 0.00 | 0.00 | 86 | 1009.8 |
| 20260507134125 | 63 | 324 | 8.0 | 15.0 | 0.00 | 0.00 | 0.00 | 86 | 1009.8 |
| 20260507134025 | 63 | 341 | 8.0 | 15.0 | 0.00 | 0.00 | 0.00 | 86 | 1009.8 |
| 20260507133925 | 63 | 0 | 9.0 | 17.0 | 0.00 | 0.00 | 0.00 | 86 | 1009.8 |
| 20260507133832 | 63 | 350 | 11.0 | 17.0 | 0.00 | 0.00 | 0.00 | 86 | 1009.9 |
| 20260507133725 | 63 | 344 | 10.0 | 17.0 | 0.00 | 0.00 | 0.00 | 86 | 1009.9 |
| 20260507133625 | 63 | 20 | 10.0 | 17.0 | 0.00 | 0.00 | 0.00 | 86 | 1009.9 |
| 20260507133527 | 64 | 354 | 11.0 | 17.0 | 0.00 | 0.00 | 0.00 | 86 | 1009.9 |
| 20260507133426 | 64 | 340 | 10.0 | 17.0 | 0.00 | 0.00 | 0.00 | 86 | 1009.9 |
| 20260507133326 | 64 | 344 | 9.0 | 17.0 | 0.00 | 0.00 | 0.00 | 86 | 1010.1 |
| 20260507133225 | 64 | 0 | 9.0 | 17.0 | 0.00 | 0.00 | 0.00 | 86 | 1010.0 |
| 20260507133125 | 64 | 338 | 11.0 | 17.0 | 0.00 | 0.00 | 0.00 | 86 | 1010.1 |
| 20260507133025 | 64 | 321 | 11.0 | 17.0 | 0.00 | 0.00 | 0.00 | 86 | 1010.1 |
| 20260507132926 | 64 | 0 | 10.0 | 15.0 | 0.00 | 0.00 | 0.00 | 86 | 1010.1 |
| 20260507132827 | 64 | 344 | 11.0 | 15.0 | 0.00 | 0.00 | 0.00 | 86 | 1010.1 |
| 20260507132726 | 64 | 347 | 9.0 | 14.0 | 0.00 | 0.00 | 0.00 | 86 | 1010.2 |
| 20260507132624 | 64 | 0 | 10.0 | 14.0 | 0.00 | 0.00 | 0.00 | 86 | 1010.2 |
| 20260507132526 | 64 | 347 | 10.0 | 14.0 | 0.00 | 0.00 | 0.00 | 86 | 1010.3 |
| 20260507132426 | 64 | 344 | 9.0 | 14.0 | 0.00 | 0.00 | 0.00 | 86 | 1010.3 |
| 20260507132324 | 64 | 354 | 9.0 | 14.0 | 0.00 | 0.00 | 0.00 | 86 | 1010.2 |
| 20260507132226 | 64 | 321 | 10.0 | 14.0 | 0.00 | 0.00 | 0.00 | 86 | 1010.2 |
| 20260507132125 | 64 | 334 | 9.0 | 13.0 | 0.00 | 0.00 | 0.00 | 86 | 1010.3 |
| 20260507132025 | 64 | 348 | 8.0 | 17.0 | 0.00 | 0.00 | 0.00 | 86 | 1010.3 |
| 20260507131924 | 64 | 345 | 8.0 | 17.0 | 0.00 | 0.00 | 0.00 | 86 | 1010.4 |
| 20260507131825 | 64 | 338 | 8.0 | 17.0 | 0.00 | 0.00 | 0.00 | 86 | 1010.4 |
| 20260507131725 | 64 | 307 | 8.0 | 17.0 | 0.00 | 0.00 | 0.00 | 86 | 1010.4 |
| 20260507131626 | 64 | 350 | 9.0 | 17.0 | 0.00 | 0.00 | 0.00 | 86 | 1010.3 |
| 20260507131526 | 64 | 341 | 10.0 | 17.0 | 0.00 | 0.00 | 0.00 | 86 | 1010.3 |
| 20260507131424 | 64 | 350 | 10.0 | 17.0 | 0.00 | 0.00 | 0.00 | 86 | 1010.3 |
| 20260507131326 | 64 | 358 | 10.0 | 17.0 | 0.00 | 0.00 | 0.00 | 86 | 1010.4 |
| 20260507131225 | 64 | 351 | 11.0 | 17.0 | 0.00 | 0.00 | 0.00 | 86 | 1010.4 |
| 20260507131126 | 64 | 354 | 11.0 | 17.0 | 0.00 | 0.00 | 0.00 | 86 | 1010.5 |
| 20260507131025 | 64 | 336 | 9.0 | 14.0 | 0.00 | 0.00 | 0.00 | 86 | 1010.6 |
| 20260507130925 | 64 | 351 | 9.0 | 14.0 | 0.00 | 0.00 | 0.00 | 86 | 1010.5 |
| 20260507130825 | 64 | 312 | 10.0 | 14.0 | 0.00 | 0.00 | 0.00 | 86 | 1010.5 |
| 20260507130725 | 64 | 0 | 10.0 | 14.0 | 0.00 | 0.00 | 0.00 | 86 | 1010.4 |
| 20260507130627 | 64 | 330 | 10.0 | 14.0 | 0.00 | 0.00 | 0.00 | 86 | 1010.3 |
| 20260507130527 | 64 | 338 | 9.0 | 14.0 | 0.00 | 0.00 | 0.00 | 86 | 1010.3 |
| 20260507130426 | 64 | 353 | 8.0 | 14.0 | 0.00 | 0.00 | 0.00 | 86 | 1010.3 |
| 20260507130325 | 64 | 331 | 9.0 | 14.0 | 0.00 | 0.00 | 0.00 | 86 | 1010.2 |
| 20260507130225 | 64 | 350 | 9.0 | 14.0 | 0.00 | 0.00 | 0.00 | 86 | 1010.2 |
| 20260507130125 | 64 | 351 | 9.0 | 12.0 | 0.00 | 0.00 | 0.00 | 86 | 1010.3 |
| 20260507130025 | 64 | 324 | 8.0 | 12.0 | 0.00 | 0.00 | 0.00 | 86 | 1010.3 |
| 20260507125924 | 64 | 343 | 7.0 | 10.0 | 0.00 | 0.00 | 0.00 | 86 | 1010.3 |
| 20260507125825 | 65 | 344 | 7.0 | 10.0 | 0.00 | 0.00 | 0.00 | 86 | 1010.4 |
| 20260507125725 | 65 | 334 | 6.0 | 10.0 | 0.00 | 0.00 | 0.00 | 86 | 1010.5 |
| 20260507125624 | 65 | 327 | 6.0 | 11.0 | 0.00 | 0.00 | 0.00 | 86 | 1010.4 |
| 20260507125525 | 65 | 333 | 6.0 | 11.0 | 0.00 | 0.00 | 0.00 | 86 | 1010.5 |
| 20260507125424 | 65 | 319 | 7.0 | 12.0 | 0.00 | 0.00 | 0.00 | 86 | 1010.4 |
| 20260507125325 | 65 | 341 | 7.0 | 13.0 | 0.00 | 0.00 | 0.00 | 86 | 1010.4 |
| 20260507125224 | 65 | 348 | 6.0 | 13.0 | 0.00 | 0.00 | 0.00 | 86 | 1010.4 |
| 20260507125124 | 65 | 10 | 7.0 | 13.0 | 0.00 | 0.00 | 0.00 | 86 | 1010.3 |
| 20260507125025 | 65 | 306 | 7.0 | 13.0 | 0.00 | 0.00 | 0.00 | 86 | 1010.3 |
| 20260507124925 | 65 | 331 | 7.0 | 15.0 | 0.00 | 0.00 | 0.00 | 86 | 1010.3 |
| 20260507124824 | 65 | 351 | 7.0 | 15.0 | 0.00 | 0.00 | 0.00 | 86 | 1010.3 |
| 20260507124725 | 65 | 327 | 8.0 | 15.0 | 0.00 | 0.00 | 0.00 | 86 | 1010.2 |
| 20260507124624 | 65 | 333 | 8.0 | 15.0 | 0.00 | 0.00 | 0.00 | 86 | 1010.2 |
| 20260507124525 | 65 | 338 | 10.0 | 15.0 | 0.00 | 0.00 | 0.00 | 86 | 1010.2 |
| 20260507124425 | 65 | 353 | 10.0 | 15.0 | 0.00 | 0.00 | 0.00 | 86 | 1010.2 |
| 20260507124325 | 65 | 351 | 9.0 | 15.0 | 0.00 | 0.00 | 0.00 | 86 | 1010.2 |
| 20260507124225 | 65 | 337 | 10.0 | 15.0 | 0.00 | 0.00 | 0.00 | 86 | 1010.2 |
| 20260507124123 | 65 | 348 | 10.0 | 15.0 | 0.00 | 0.00 | 0.00 | 86 | 1010.2 |
| 20260507124023 | 65 | 338 | 10.0 | 15.0 | 0.00 | 0.00 | 0.00 | 86 | 1010.3 |
| 20260507123925 | 65 | 354 | 9.0 | 12.0 | 0.00 | 0.00 | 0.00 | 86 | 1010.1 |
| 20260507123825 | 65 | 6 | 9.0 | 12.0 | 0.00 | 0.00 | 0.00 | 86 | 1010.1 |
| 20260507123725 | 65 | 327 | 9.0 | 12.0 | 0.00 | 0.00 | 0.00 | 86 | 1010.2 |
| 20260507123626 | 65 | 341 | 9.0 | 12.0 | 0.00 | 0.00 | 0.00 | 86 | 1010.2 |
| 20260507123523 | 65 | 336 | 8.0 | 12.0 | 0.00 | 0.00 | 0.00 | 86 | 1010.2 |
| 20260507123424 | 65 | 0 | 8.0 | 12.0 | 0.00 | 0.00 | 0.00 | 86 | 1010.2 |
| 20260507123324 | 65 | 330 | 8.0 | 12.0 | 0.00 | 0.00 | 0.00 | 86 | 1010.1 |
| 20260507123224 | 65 | 327 | 7.0 | 12.0 | 0.00 | 0.00 | 0.00 | 86 | 1010.1 |
| 20260507123125 | 65 | 316 | 8.0 | 12.0 | 0.00 | 0.00 | 0.00 | 86 | 1010.0 |
| 20260507123024 | 65 | 344 | 8.0 | 12.0 | 0.00 | 0.00 | 0.00 | 86 | 1010.0 |
| 20260507122923 | 65 | 326 | 8.0 | 12.0 | 0.00 | 0.00 | 0.00 | 86 | 1009.8 |
| 20260507122824 | 65 | 0 | 7.0 | 11.0 | 0.00 | 0.00 | 0.00 | 86 | 1009.7 |
| 20260507122723 | 65 | 330 | 6.0 | 14.0 | 0.00 | 0.00 | 0.00 | 86 | 1009.7 |
| 20260507122624 | 65 | 323 | 6.0 | 14.0 | 0.00 | 0.00 | 0.00 | 86 | 1009.6 |
| 20260507122524 | 65 | 329 | 6.0 | 15.0 | 0.00 | 0.00 | 0.00 | 86 | 1009.7 |
| 20260507122423 | 65 | 341 | 7.0 | 15.0 | 0.00 | 0.00 | 0.00 | 86 | 1009.6 |
| 20260507122323 | 65 | 337 | 8.0 | 15.0 | 0.00 | 0.00 | 0.00 | 86 | 1009.6 |
| 20260507122224 | 65 | 347 | 8.0 | 15.0 | 0.00 | 0.00 | 0.00 | 86 | 1009.6 |
| 20260507122124 | 65 | 345 | 8.0 | 15.0 | 0.00 | 0.00 | 0.00 | 86 | 1009.5 |
| 20260507122023 | 65 | 348 | 7.0 | 15.0 | 0.00 | 0.00 | 0.00 | 87 | 1009.4 |
| 20260507121924 | 65 | 336 | 9.0 | 15.0 | 0.00 | 0.00 | 0.00 | 87 | 1009.4 |
| 20260507121823 | 65 | 337 | 10.0 | 15.0 | 0.00 | 0.00 | 0.00 | 87 | 1009.3 |
| 20260507121723 | 65 | 0 | 10.0 | 15.0 | 0.00 | 0.00 | 0.00 | 87 | 1009.3 |
| 20260507121624 | 65 | 343 | 10.0 | 15.0 | 0.00 | 0.00 | 0.00 | 87 | 1009.4 |
| 20260507121525 | 65 | 0 | 9.0 | 13.0 | 0.00 | 0.00 | 0.00 | 87 | 1009.4 |
| 20260507121423 | 65 | 353 | 9.0 | 13.0 | 0.00 | 0.00 | 0.00 | 87 | 1009.5 |
| 20260507121325 | 65 | 0 | 7.0 | 12.0 | 0.00 | 0.00 | 0.00 | 87 | 1009.6 |
| 20260507121224 | 65 | 358 | 6.0 | 12.0 | 0.00 | 0.00 | 0.00 | 87 | 1009.6 |
| 20260507121124 | 65 | 340 | 7.0 | 12.0 | 0.00 | 0.00 | 0.00 | 87 | 1009.6 |
| 20260507121023 | 65 | 338 | 7.0 | 12.0 | 0.00 | 0.00 | 0.00 | 87 | 1009.7 |
| 20260507120924 | 65 | 321 | 7.0 | 12.0 | 0.00 | 0.00 | 0.00 | 87 | 1009.6 |
| 20260507120824 | 65 | 323 | 7.0 | 12.0 | 0.00 | 0.00 | 0.00 | 87 | 1009.6 |
| 20260507120723 | 65 | 323 | 8.0 | 12.0 | 0.00 | 0.00 | 0.00 | 87 | 1009.4 |
| 20260507120624 | 65 | 357 | 7.0 | 12.0 | 0.00 | 0.00 | 0.00 | 87 | 1009.4 |
| 20260507120524 | 65 | 347 | 6.0 | 11.0 | 0.00 | 0.00 | 0.00 | 87 | 1009.2 |
| 20260507120424 | 65 | 338 | 5.0 | 11.0 | 0.00 | 0.00 | 0.00 | 87 | 1009.2 |
| 20260507120323 | 65 | 0 | 5.0 | 11.0 | 0.00 | 0.00 | 0.00 | 87 | 1009.1 |
| 20260507120224 | 65 | 0 | 5.0 | 11.0 | 0.00 | 0.00 | 0.00 | 87 | 1009.0 |
| 20260507120123 | 65 | 336 | 5.0 | 11.0 | 0.00 | 0.00 | 0.00 | 87 | 1009.0 |
| 20260507120024 | 65 | 0 | 6.0 | 11.0 | 0.00 | 0.00 | 0.00 | 87 | 1008.9 |
| 20260507115923 | 65 | 330 | 6.0 | 11.0 | 0.00 | 0.00 | 0.00 | 87 | 1009.1 |
| 20260507115825 | 65 | 337 | 7.0 | 14.0 | 0.00 | 0.00 | 0.00 | 87 | 1009.1 |
| 20260507115723 | 65 | 358 | 6.0 | 14.0 | 0.00 | 0.00 | 0.00 | 87 | 1009.1 |
| 20260507115623 | 65 | 344 | 5.0 | 14.0 | 0.00 | 0.00 | 0.00 | 87 | 1009.1 |
| 20260507115525 | 65 | 331 | 5.0 | 14.0 | 0.00 | 0.00 | 0.00 | 86 | 1009.0 |
| 20260507115422 | 65 | 358 | 7.0 | 14.0 | 0.00 | 0.00 | 0.00 | 86 | 1008.9 |
| 20260507115324 | 65 | 354 | 7.0 | 14.0 | 0.00 | 0.00 | 0.00 | 86 | 1008.9 |
| 20260507115223 | 65 | 354 | 7.0 | 14.0 | 0.00 | 0.00 | 0.00 | 86 | 1008.8 |
| 20260507115123 | 65 | 0 | 7.0 | 14.0 | 0.00 | 0.00 | 0.00 | 86 | 1008.8 |
| 20260507115023 | 65 | 341 | 9.0 | 14.0 | 0.00 | 0.00 | 0.00 | 86 | 1008.9 |
| 20260507114923 | 65 | 334 | 8.0 | 14.0 | 0.00 | 0.00 | 0.00 | 86 | 1008.8 |
| 20260507114822 | 65 | 0 | 6.0 | 13.0 | 0.00 | 0.00 | 0.00 | 86 | 1008.8 |
| 20260507114722 | 65 | 351 | 8.0 | 13.0 | 0.00 | 0.00 | 0.00 | 86 | 1008.8 |
| 20260507114625 | 65 | 0 | 9.0 | 13.0 | 0.00 | 0.00 | 0.00 | 86 | 1008.8 |
| 20260507114522 | 65 | 358 | 8.0 | 13.0 | 0.00 | 0.00 | 0.00 | 86 | 1008.8 |
| 20260507114424 | 65 | 341 | 7.0 | 13.0 | 0.00 | 0.00 | 0.00 | 86 | 1008.8 |
| 20260507114322 | 65 | 0 | 8.0 | 13.0 | 0.00 | 0.00 | 0.00 | 86 | 1008.8 |
| 20260507114224 | 65 | 319 | 8.0 | 13.0 | 0.00 | 0.00 | 0.00 | 86 | 1008.9 |
| 20260507114124 | 65 | 0 | 8.0 | 13.0 | 0.00 | 0.00 | 0.00 | 86 | 1008.8 |
| 20260507114022 | 65 | 341 | 7.0 | 13.0 | 0.00 | 0.00 | 0.00 | 86 | 1008.8 |
| 20260507113924 | 65 | 358 | 7.0 | 12.0 | 0.00 | 0.00 | 0.00 | 86 | 1008.8 |
| 20260507113823 | 65 | 330 | 8.0 | 12.0 | 0.00 | 0.00 | 0.00 | 86 | 1008.7 |
| 20260507113710 | 65 | 347 | 8.0 | 12.0 | 0.00 | 0.00 | 0.00 | 86 | 1008.7 |
| 20260507113602 | 65 | 354 | 7.0 | 12.0 | 0.00 | 0.00 | 0.00 | 86 | 1008.7 |
| 20260507113505 | 65 | 336 | 7.0 | 12.0 | 0.00 | 0.00 | 0.00 | 86 | 1008.7 |
| 20260507113403 | 65 | 323 | 8.0 | 12.0 | 0.00 | 0.00 | 0.00 | 86 | 1008.7 |
| 20260507113303 | 65 | 338 | 8.0 | 12.0 | 0.00 | 0.00 | 0.00 | 86 | 1008.7 |
| 20260507113203 | 65 | 351 | 8.0 | 13.0 | 0.00 | 0.00 | 0.00 | 86 | 1008.8 |
| 20260507113102 | 65 | 344 | 8.0 | 13.0 | 0.00 | 0.00 | 0.00 | 86 | 1008.7 |
| 20260507113005 | 65 | 353 | 9.0 | 13.0 | 0.00 | 0.00 | 0.00 | 86 | 1008.7 |
| 20260507112901 | 65 | 343 | 9.0 | 13.0 | 0.00 | 0.00 | 0.00 | 86 | 1008.7 |
| 20260507112801 | 65 | 341 | 7.0 | 13.0 | 0.00 | 0.00 | 0.00 | 86 | 1008.8 |
| 20260507112702 | 66 | 333 | 6.0 | 13.0 | 0.00 | 0.00 | 0.00 | 86 | 1008.6 |
| 20260507112602 | 66 | 341 | 7.0 | 13.0 | 0.00 | 0.00 | 0.00 | 86 | 1008.7 |
| 20260507112504 | 66 | 341 | 7.0 | 13.0 | 0.00 | 0.00 | 0.00 | 86 | 1008.6 |
| 20260507112358 | 66 | 347 | 9.0 | 13.0 | 0.00 | 0.00 | 0.00 | 86 | 1008.6 |
| 20260507112257 | 66 | 329 | 10.0 | 13.0 | 0.00 | 0.00 | 0.00 | 86 | 1008.6 |
| 20260507112155 | 66 | 343 | 7.0 | 14.0 | 0.00 | 0.00 | 0.00 | 86 | 1008.6 |
| 20260507112049 | 66 | 0 | 6.0 | 14.0 | 0.00 | 0.00 | 0.00 | 86 | 1008.5 |
| 20260507111947 | 66 | 0 | 6.0 | 14.0 | 0.00 | 0.00 | 0.00 | 86 | 1008.4 |
| 20260507111844 | 66 | 345 | 6.0 | 14.0 | 0.00 | 0.00 | 0.00 | 86 | 1008.4 |
| 20260507111744 | 66 | 0 | 6.0 | 14.0 | 0.00 | 0.00 | 0.00 | 86 | 1008.3 |
| 20260507111639 | 66 | 343 | 7.0 | 14.0 | 0.00 | 0.00 | 0.00 | 86 | 1008.3 |
| 20260507111538 | 66 | 350 | 8.0 | 14.0 | 0.00 | 0.00 | 0.00 | 86 | 1008.2 |
| 20260507111437 | 66 | 0 | 9.0 | 14.0 | 0.00 | 0.00 | 0.00 | 86 | 1008.2 |
| 20260507111335 | 66 | 343 | 11.0 | 14.0 | 0.00 | 0.00 | 0.00 | 86 | 1008.1 |
| 20260507111231 | 66 | 358 | 11.0 | 14.0 | 0.00 | 0.00 | 0.00 | 86 | 1008.1 |
| 20260507111133 | 66 | 354 | 9.0 | 14.0 | 0.00 | 0.00 | 0.00 | 86 | 1008.2 |
| 20260507111031 | 66 | 351 | 7.0 | 10.0 | 0.00 | 0.00 | 0.00 | 85 | 1008.3 |
| 20260507110933 | 66 | 338 | 7.0 | 10.0 | 0.00 | 0.00 | 0.00 | 85 | 1008.4 |
| 20260507110831 | 66 | 344 | 6.0 | 10.0 | 0.00 | 0.00 | 0.00 | 85 | 1008.5 |
| 20260507110732 | 66 | 333 | 6.0 | 10.0 | 0.00 | 0.00 | 0.00 | 85 | 1008.5 |
| 20260507110633 | 66 | 0 | 6.0 | 10.0 | 0.00 | 0.00 | 0.00 | 85 | 1008.5 |
| 20260507110532 | 66 | 347 | 6.0 | 10.0 | 0.00 | 0.00 | 0.00 | 86 | 1008.5 |
| 20260507110431 | 66 | 0 | 6.0 | 10.0 | 0.00 | 0.00 | 0.00 | 86 | 1008.4 |
| 20260507110331 | 66 | 0 | 6.0 | 10.0 | 0.00 | 0.00 | 0.00 | 86 | 1008.4 |
| 20260507110232 | 66 | 350 | 6.0 | 10.0 | 0.00 | 0.00 | 0.00 | 85 | 1008.4 |
| 20260507110131 | 66 | 350 | 6.0 | 10.0 | 0.00 | 0.00 | 0.00 | 85 | 1008.3 |
| 20260507110022 | 66 | 0 | 6.0 | 10.0 | 0.00 | 0.00 | 0.00 | 85 | 1008.3 |
| 20260507105923 | 66 | 351 | 6.0 | 10.0 | 0.00 | 0.00 | 0.00 | 85 | 1008.4 |
| 20260507105821 | 66 | 0 | 6.0 | 9.0 | 0.00 | 0.00 | 0.00 | 85 | 1008.4 |
| 20260507105722 | 66 | 330 | 6.0 | 9.0 | 0.00 | 0.00 | 0.00 | 85 | 1008.4 |
| 20260507105624 | 66 | 343 | 6.0 | 9.0 | 0.00 | 0.00 | 0.00 | 85 | 1008.3 |
| 20260507105521 | 66 | 348 | 6.0 | 9.0 | 0.00 | 0.00 | 0.00 | 86 | 1008.2 |
| 20260507105422 | 66 | 358 | 6.0 | 9.0 | 0.00 | 0.00 | 0.00 | 86 | 1008.3 |
| 20260507105321 | 66 | 350 | 6.0 | 9.0 | 0.00 | 0.00 | 0.00 | 86 | 1008.0 |
| 20260507105221 | 66 | 354 | 6.0 | 9.0 | 0.00 | 0.00 | 0.00 | 85 | 1008.1 |
| 20260507105122 | 66 | 351 | 7.0 | 9.0 | 0.00 | 0.00 | 0.00 | 85 | 1008.1 |
| 20260507105022 | 66 | 10 | 6.0 | 9.0 | 0.00 | 0.00 | 0.00 | 86 | 1008.1 |
| 20260507104923 | 66 | 340 | 5.0 | 9.0 | 0.00 | 0.00 | 0.00 | 86 | 1008.3 |
| 20260507104823 | 66 | 317 | 4.0 | 9.0 | 0.00 | 0.00 | 0.00 | 86 | 1008.3 |
| 20260507104722 | 66 | 334 | 3.0 | 9.0 | 0.00 | 0.00 | 0.00 | 85 | 1008.3 |
| 20260507104621 | 66 | 345 | 3.0 | 9.0 | 0.00 | 0.00 | 0.00 | 85 | 1008.3 |
| 20260507104521 | 66 | 1 | 5.0 | 9.0 | 0.00 | 0.00 | 0.00 | 85 | 1008.2 |
| 20260507104421 | 66 | 358 | 6.0 | 9.0 | 0.00 | 0.00 | 0.00 | 85 | 1008.2 |
| 20260507104323 | 66 | 0 | 6.0 | 7.0 | 0.00 | 0.00 | 0.00 | 85 | 1008.2 |
| 20260507104222 | 66 | 357 | 6.0 | 7.0 | 0.00 | 0.00 | 0.00 | 85 | 1008.2 |
| 20260507104121 | 66 | 348 | 6.0 | 7.0 | 0.00 | 0.00 | 0.00 | 85 | 1008.0 |
| 20260507104023 | 66 | 0 | 6.0 | 7.0 | 0.00 | 0.00 | 0.00 | 85 | 1008.0 |
| 20260507103921 | 66 | 331 | 6.0 | 7.0 | 0.00 | 0.00 | 0.00 | 85 | 1008.0 |
| 20260507103821 | 66 | 345 | 5.0 | 7.0 | 0.00 | 0.00 | 0.00 | 85 | 1008.0 |
| 20260507103722 | 66 | 333 | 5.0 | 7.0 | 0.00 | 0.00 | 0.00 | 85 | 1008.0 |
| 20260507103622 | 66 | 24 | 4.0 | 7.0 | 0.00 | 0.00 | 0.00 | 85 | 1007.9 |
| 20260507103522 | 66 | 348 | 4.0 | 7.0 | 0.00 | 0.00 | 0.00 | 85 | 1008.0 |
| 20260507103421 | 66 | 0 | 3.0 | 7.0 | 0.00 | 0.00 | 0.00 | 85 | 1008.1 |
| 20260507103320 | 66 | 0 | 3.0 | 9.0 | 0.00 | 0.00 | 0.00 | 85 | 1008.1 |
| 20260507103222 | 66 | 0 | 3.0 | 9.0 | 0.00 | 0.00 | 0.00 | 85 | 1008.1 |
| 20260507103122 | 66 | 34 | 3.0 | 9.0 | 0.00 | 0.00 | 0.00 | 86 | 1008.1 |
| 20260507103022 | 66 | 0 | 2.0 | 9.0 | 0.00 | 0.00 | 0.00 | 86 | 1008.0 |
| 20260507102920 | 66 | 0 | 3.0 | 9.0 | 0.00 | 0.00 | 0.00 | 86 | 1008.1 |
| 20260507102823 | 66 | 0 | 5.0 | 9.0 | 0.00 | 0.00 | 0.00 | 86 | 1008.1 |
| 20260507102720 | 66 | 0 | 4.0 | 9.0 | 0.00 | 0.00 | 0.00 | 86 | 1008.0 |
| 20260507102618 | 66 | 0 | 4.0 | 9.0 | 0.00 | 0.00 | 0.00 | 86 | 1008.0 |
| 20260507102514 | 66 | 3 | 5.0 | 9.0 | 0.00 | 0.00 | 0.00 | 86 | 1007.9 |
| 20260507102413 | 66 | 0 | 5.0 | 9.0 | 0.00 | 0.00 | 0.00 | 85 | 1007.9 |
| 20260507102306 | 66 | 357 | 5.0 | 7.0 | 0.00 | 0.00 | 0.00 | 85 | 1007.9 |
| 20260507102202 | 66 | 358 | 5.0 | 7.0 | 0.00 | 0.00 | 0.00 | 85 | 1007.9 |
| 20260507102103 | 66 | 353 | 6.0 | 7.0 | 0.00 | 0.00 | 0.00 | 85 | 1007.9 |
| 20260507102002 | 66 | 0 | 6.0 | 11.0 | 0.00 | 0.00 | 0.00 | 85 | 1008.0 |
| 20260507101903 | 66 | 357 | 5.0 | 11.0 | 0.00 | 0.00 | 0.00 | 86 | 1008.0 |
| 20260507101802 | 66 | 4 | 4.0 | 11.0 | 0.00 | 0.00 | 0.00 | 86 | 1008.0 |
| 20260507101703 | 66 | 358 | 4.0 | 11.0 | 0.00 | 0.00 | 0.00 | 86 | 1008.0 |
| 20260507101604 | 66 | 0 | 5.0 | 11.0 | 0.00 | 0.00 | 0.00 | 86 | 1008.0 |
| 20260507101502 | 66 | 4 | 5.0 | 11.0 | 0.00 | 0.00 | 0.00 | 86 | 1007.9 |
| 20260507101404 | 66 | 10 | 5.0 | 11.0 | 0.00 | 0.00 | 0.00 | 86 | 1008.0 |
| 20260507101302 | 66 | 355 | 5.0 | 11.0 | 0.00 | 0.00 | 0.00 | 86 | 1007.9 |
| 20260507101204 | 66 | 0 | 6.0 | 11.0 | 0.00 | 0.00 | 0.00 | 86 | 1007.9 |
| 20260507101103 | 66 | 0 | 6.0 | 11.0 | 0.00 | 0.00 | 0.00 | 86 | 1008.0 |
| 20260507101003 | 66 | 0 | 4.0 | 10.0 | 0.00 | 0.00 | 0.00 | 86 | 1008.1 |
| 20260507100903 | 66 | 1 | 4.0 | 10.0 | 0.00 | 0.00 | 0.00 | 86 | 1008.1 |
| 20260507100802 | 66 | 0 | 5.0 | 10.0 | 0.00 | 0.00 | 0.00 | 86 | 1008.0 |
| 20260507100703 | 66 | 357 | 5.0 | 10.0 | 0.00 | 0.00 | 0.00 | 86 | 1008.0 |
| 20260507100603 | 66 | 354 | 4.0 | 10.0 | 0.00 | 0.00 | 0.00 | 86 | 1007.9 |
| 20260507100505 | 66 | 0 | 4.0 | 10.0 | 0.00 | 0.00 | 0.00 | 86 | 1007.9 |
| 20260507100403 | 66 | 1 | 5.0 | 10.0 | 0.00 | 0.00 | 0.00 | 86 | 1007.8 |
| 20260507100302 | 66 | 0 | 7.0 | 10.0 | 0.00 | 0.00 | 0.00 | 86 | 1007.7 |
| 20260507100203 | 66 | 347 | 6.0 | 10.0 | 0.00 | 0.00 | 0.00 | 86 | 1007.7 |
| 20260507100104 | 66 | 0 | 4.0 | 9.0 | 0.00 | 0.00 | 0.00 | 86 | 1007.6 |
| 20260507100004 | 66 | 358 | 5.0 | 10.0 | 0.00 | 0.00 | 0.00 | 86 | 1007.6 |
| 20260507095903 | 66 | 6 | 5.0 | 10.0 | 0.00 | 0.00 | 0.00 | 86 | 1007.6 |
| 20260507095802 | 66 | 8 | 4.0 | 10.0 | 0.00 | 0.00 | 0.00 | 86 | 1007.7 |
| 20260507095702 | 66 | 4 | 5.0 | 10.0 | 0.00 | 0.00 | 0.00 | 86 | 1007.7 |
| 20260507095602 | 66 | 354 | 6.0 | 10.0 | 0.00 | 0.00 | 0.00 | 86 | 1007.7 |
| 20260507095501 | 66 | 0 | 4.0 | 10.0 | 0.00 | 0.00 | 0.00 | 86 | 1007.8 |
| 20260507095401 | 66 | 331 | 4.0 | 10.0 | 0.00 | 0.00 | 0.00 | 86 | 1007.7 |
| 20260507095306 | 66 | 347 | 5.0 | 10.0 | 0.00 | 0.00 | 0.00 | 86 | 1007.7 |
| 20260507095202 | 66 | 0 | 6.0 | 10.0 | 0.00 | 0.00 | 0.00 | 86 | 1007.7 |
| 20260507095104 | 66 | 0 | 6.0 | 10.0 | 0.00 | 0.00 | 0.00 | 86 | 1007.6 |
| 20260507095005 | 66 | 340 | 5.0 | 9.0 | 0.00 | 0.00 | 0.00 | 86 | 1007.7 |
| 20260507094903 | 66 | 0 | 4.0 | 9.0 | 0.00 | 0.00 | 0.00 | 86 | 1007.7 |
| 20260507094803 | 66 | 350 | 4.0 | 9.0 | 0.00 | 0.00 | 0.00 | 86 | 1007.6 |
| 20260507094704 | 66 | 350 | 4.0 | 9.0 | 0.00 | 0.00 | 0.00 | 86 | 1007.7 |
| 20260507094603 | 66 | 16 | 5.0 | 9.0 | 0.00 | 0.00 | 0.00 | 86 | 1007.6 |
| 20260507094503 | 66 | 0 | 6.0 | 9.0 | 0.00 | 0.00 | 0.00 | 86 | 1007.5 |
| 20260507094402 | 66 | 348 | 6.0 | 9.0 | 0.00 | 0.00 | 0.00 | 86 | 1007.5 |
| 20260507094303 | 66 | 354 | 5.0 | 9.0 | 0.00 | 0.00 | 0.00 | 86 | 1007.5 |
| 20260507094205 | 66 | 0 | 5.0 | 9.0 | 0.00 | 0.00 | 0.00 | 86 | 1007.5 |
| 20260507094104 | 66 | 345 | 6.0 | 9.0 | 0.00 | 0.00 | 0.00 | 86 | 1007.4 |
| 20260507094002 | 66 | 358 | 6.0 | 9.0 | 0.00 | 0.00 | 0.00 | 86 | 1007.4 |
| 20260507093902 | 66 | 354 | 6.0 | 9.0 | 0.00 | 0.00 | 0.00 | 86 | 1007.5 |
| 20260507093803 | 66 | 353 | 6.0 | 9.0 | 0.00 | 0.00 | 0.00 | 86 | 1007.5 |
| 20260507093702 | 66 | 341 | 5.0 | 9.0 | 0.00 | 0.00 | 0.00 | 86 | 1007.5 |
| 20260507093602 | 66 | 347 | 6.0 | 9.0 | 0.00 | 0.00 | 0.00 | 86 | 1007.7 |
| 20260507093503 | 66 | 341 | 6.0 | 9.0 | 0.00 | 0.00 | 0.00 | 86 | 1007.7 |
| 20260507093402 | 65 | 344 | 6.0 | 9.0 | 0.00 | 0.00 | 0.00 | 86 | 1007.7 |
| 20260507093304 | 65 | 0 | 6.0 | 10.0 | 0.00 | 0.00 | 0.00 | 86 | 1007.7 |
| 20260507093203 | 66 | 350 | 5.0 | 10.0 | 0.00 | 0.00 | 0.00 | 86 | 1007.7 |
| 20260507093104 | 65 | 324 | 5.0 | 10.0 | 0.00 | 0.00 | 0.00 | 86 | 1007.7 |
| 20260507093001 | 66 | 341 | 5.0 | 10.0 | 0.00 | 0.00 | 0.00 | 86 | 1007.7 |
| 20260507092902 | 66 | 305 | 5.0 | 10.0 | 0.00 | 0.00 | 0.00 | 86 | 1007.6 |
| 20260507092803 | 65 | 340 | 5.0 | 11.0 | 0.00 | 0.00 | 0.00 | 86 | 1007.4 |
| 20260507092704 | 65 | 0 | 4.0 | 11.0 | 0.00 | 0.00 | 0.00 | 86 | 1007.2 |
| 20260507092603 | 65 | 21 | 4.0 | 11.0 | 0.00 | 0.00 | 0.00 | 86 | 1007.2 |
| 20260507092502 | 65 | 24 | 5.0 | 11.0 | 0.00 | 0.00 | 0.00 | 86 | 1007.2 |
| 20260507092402 | 65 | 11 | 6.0 | 11.0 | 0.00 | 0.00 | 0.00 | 86 | 1007.1 |
| 20260507092307 | 65 | 0 | 6.0 | 11.0 | 0.00 | 0.00 | 0.00 | 86 | 1007.1 |
| 20260507092202 | 65 | 345 | 5.0 | 11.0 | 0.00 | 0.00 | 0.00 | 86 | 1007.1 |
| 20260507092103 | 65 | 343 | 5.0 | 11.0 | 0.00 | 0.00 | 0.00 | 86 | 1007.1 |
| 20260507091957 | 65 | 11 | 5.0 | 11.0 | 0.00 | 0.00 | 0.00 | 86 | 1007.0 |
| 20260507091855 | 65 | 0 | 6.0 | 11.0 | 0.00 | 0.00 | 0.00 | 86 | 1007.0 |
| 20260507091754 | 66 | 348 | 6.0 | 10.0 | 0.00 | 0.00 | 0.00 | 86 | 1007.1 |
| 20260507091642 | 66 | 0 | 5.0 | 10.0 | 0.00 | 0.00 | 0.00 | 86 | 1007.1 |
| 20260507091539 | 65 | 348 | 5.0 | 10.0 | 0.00 | 0.00 | 0.00 | 86 | 1007.2 |
| 20260507091436 | 65 | 345 | 4.0 | 10.0 | 0.00 | 0.00 | 0.00 | 86 | 1007.2 |
| 20260507091332 | 65 | 348 | 4.0 | 10.0 | 0.00 | 0.00 | 0.00 | 86 | 1007.3 |
| 20260507091232 | 65 | 0 | 4.0 | 10.0 | 0.00 | 0.00 | 0.00 | 86 | 1007.2 |
| 20260507091133 | 65 | 13 | 4.0 | 10.0 | 0.00 | 0.00 | 0.00 | 86 | 1007.2 |
| 20260507091033 | 65 | 0 | 3.0 | 10.0 | 0.00 | 0.00 | 0.00 | 85 | 1007.2 |
| 20260507090931 | 65 | 20 | 3.0 | 10.0 | 0.00 | 0.00 | 0.00 | 85 | 1007.1 |
| 20260507090831 | 65 | 0 | 6.0 | 10.0 | 0.00 | 0.00 | 0.00 | 85 | 1007.1 |
| 20260507090731 | 65 | 0 | 7.0 | 10.0 | 0.00 | 0.00 | 0.00 | 85 | 1007.1 |
| 20260507090633 | 65 | 6 | 6.0 | 11.0 | 0.00 | 0.00 | 0.00 | 85 | 1007.1 |
| 20260507090532 | 66 | 0 | 6.0 | 11.0 | 0.00 | 0.00 | 0.00 | 85 | 1007.2 |
| 20260507090431 | 66 | 0 | 5.0 | 11.0 | 0.00 | 0.00 | 0.00 | 85 | 1007.2 |
| 20260507090333 | 65 | 340 | 4.0 | 11.0 | 0.00 | 0.00 | 0.00 | 85 | 1007.2 |
| 20260507090232 | 66 | 357 | 5.0 | 11.0 | 0.00 | 0.00 | 0.00 | 85 | 1007.3 |
| 20260507090131 | 66 | 1 | 5.0 | 11.0 | 0.00 | 0.00 | 0.00 | 85 | 1007.4 |
| 20260507090033 | 66 | 0 | 4.0 | 11.0 | 0.00 | 0.00 | 0.00 | 85 | 1007.3 |
| 20260507085932 | 66 | 0 | 4.0 | 11.0 | 0.00 | 0.00 | 0.00 | 85 | 1007.3 |
| 20260507085833 | 66 | 347 | 5.0 | 11.0 | 0.00 | 0.00 | 0.00 | 85 | 1007.3 |
| 20260507085726 | 66 | 0 | 7.0 | 11.0 | 0.00 | 0.00 | 0.00 | 85 | 1007.3 |
| 20260507085620 | 66 | 0 | 7.0 | 11.0 | 0.00 | 0.00 | 0.00 | 85 | 1007.3 |
| 20260507085519 | 66 | 358 | 6.0 | 9.0 | 0.00 | 0.00 | 0.00 | 85 | 1007.3 |
| 20260507085420 | 66 | 340 | 5.0 | 9.0 | 0.00 | 0.00 | 0.00 | 85 | 1007.2 |
| 20260507085320 | 66 | 343 | 4.0 | 7.0 | 0.00 | 0.00 | 0.00 | 85 | 1007.4 |
| 20260507085218 | 66 | 3 | 4.0 | 10.0 | 0.00 | 0.00 | 0.00 | 85 | 1007.3 |
| 20260507085120 | 66 | 350 | 4.0 | 10.0 | 0.00 | 0.00 | 0.00 | 85 | 1007.3 |
| 20260507085020 | 66 | 6 | 4.0 | 10.0 | 0.00 | 0.00 | 0.00 | 85 | 1007.3 |
| 20260507084918 | 66 | 3 | 4.0 | 10.0 | 0.00 | 0.00 | 0.00 | 85 | 1007.3 |
| 20260507084818 | 66 | 6 | 4.0 | 10.0 | 0.00 | 0.00 | 0.00 | 85 | 1007.3 |
| 20260507084719 | 66 | 16 | 5.0 | 10.0 | 0.00 | 0.00 | 0.00 | 85 | 1007.3 |
| 20260507084619 | 66 | 0 | 6.0 | 10.0 | 0.00 | 0.00 | 0.00 | 85 | 1007.4 |
| 20260507084520 | 66 | 0 | 6.0 | 10.0 | 0.00 | 0.00 | 0.00 | 85 | 1007.5 |
| 20260507084420 | 66 | 357 | 6.0 | 10.0 | 0.00 | 0.00 | 0.00 | 85 | 1007.6 |
| 20260507084318 | 66 | 0 | 6.0 | 10.0 | 0.00 | 0.00 | 0.00 | 85 | 1007.5 |
| 20260507084218 | 66 | 0 | 5.0 | 9.0 | 0.00 | 0.00 | 0.00 | 85 | 1007.6 |
| 20260507084120 | 66 | 355 | 4.0 | 9.0 | 0.00 | 0.00 | 0.00 | 85 | 1007.6 |
| 20260507084019 | 66 | 10 | 4.0 | 9.0 | 0.00 | 0.00 | 0.00 | 85 | 1007.6 |
| 20260507083919 | 66 | 23 | 4.0 | 9.0 | 0.00 | 0.00 | 0.00 | 85 | 1007.7 |
| 20260507083820 | 66 | 0 | 5.0 | 9.0 | 0.00 | 0.00 | 0.00 | 85 | 1007.6 |
| 20260507083719 | 66 | 7 | 5.0 | 9.0 | 0.00 | 0.00 | 0.00 | 85 | 1007.6 |
| 20260507083619 | 66 | 3 | 5.0 | 9.0 | 0.00 | 0.00 | 0.00 | 85 | 1007.6 |
| 20260507083519 | 66 | 10 | 6.0 | 10.0 | 0.00 | 0.00 | 0.00 | 85 | 1007.5 |
| 20260507083420 | 66 | 10 | 5.0 | 11.0 | 0.00 | 0.00 | 0.00 | 85 | 1007.5 |
| 20260507083318 | 66 | 0 | 5.0 | 11.0 | 0.00 | 0.00 | 0.00 | 85 | 1007.5 |
| 20260507083219 | 66 | 334 | 5.0 | 11.0 | 0.00 | 0.00 | 0.00 | 85 | 1007.4 |
| 20260507083119 | 66 | 0 | 6.0 | 12.0 | 0.00 | 0.00 | 0.00 | 85 | 1007.4 |
| 20260507083019 | 66 | 0 | 6.0 | 12.0 | 0.00 | 0.00 | 0.00 | 85 | 1007.4 |
| 20260507082918 | 66 | 3 | 7.0 | 12.0 | 0.00 | 0.00 | 0.00 | 85 | 1007.5 |
| 20260507082818 | 66 | 0 | 7.0 | 12.0 | 0.00 | 0.00 | 0.00 | 85 | 1007.5 |
| 20260507082719 | 66 | 353 | 6.0 | 12.0 | 0.00 | 0.00 | 0.00 | 85 | 1007.5 |
| 20260507082618 | 66 | 350 | 6.0 | 12.0 | 0.00 | 0.00 | 0.00 | 85 | 1007.5 |
| 20260507082519 | 66 | 327 | 7.0 | 12.0 | 0.00 | 0.00 | 0.00 | 85 | 1007.5 |
| 20260507082419 | 66 | 350 | 6.0 | 12.0 | 0.00 | 0.00 | 0.00 | 85 | 1007.5 |
| 20260507082320 | 66 | 345 | 8.0 | 12.0 | 0.00 | 0.00 | 0.00 | 85 | 1007.5 |
| 20260507082217 | 66 | 8 | 9.0 | 12.0 | 0.00 | 0.00 | 0.00 | 85 | 1007.5 |
| 20260507082117 | 66 | 338 | 9.0 | 12.0 | 0.00 | 0.00 | 0.00 | 84 | 1007.6 |
| 20260507082019 | 66 | 1 | 9.0 | 12.0 | 0.00 | 0.00 | 0.00 | 85 | 1007.6 |
| 20260507081920 | 66 | 343 | 8.0 | 12.0 | 0.00 | 0.00 | 0.00 | 84 | 1007.7 |
| 20260507081820 | 66 | 345 | 7.0 | 12.0 | 0.00 | 0.00 | 0.00 | 85 | 1007.6 |
| 20260507081717 | 66 | 0 | 7.0 | 12.0 | 0.00 | 0.00 | 0.00 | 85 | 1007.6 |
| 20260507081620 | 66 | 0 | 9.0 | 12.0 | 0.00 | 0.00 | 0.00 | 84 | 1007.5 |
| 20260507081518 | 66 | 357 | 9.0 | 12.0 | 0.00 | 0.00 | 0.00 | 84 | 1007.4 |
| 20260507081417 | 66 | 354 | 8.0 | 11.0 | 0.00 | 0.00 | 0.00 | 84 | 1007.4 |
| 20260507081318 | 66 | 354 | 8.0 | 11.0 | 0.00 | 0.00 | 0.00 | 84 | 1007.2 |
| 20260507081219 | 66 | 350 | 8.0 | 11.0 | 0.00 | 0.00 | 0.00 | 84 | 1007.2 |
| 20260507081119 | 66 | 0 | 7.0 | 11.0 | 0.00 | 0.00 | 0.00 | 84 | 1007.2 |
| 20260507081019 | 66 | 0 | 6.0 | 11.0 | 0.00 | 0.00 | 0.00 | 84 | 1007.4 |
| 20260507080918 | 66 | 353 | 5.0 | 11.0 | 0.00 | 0.00 | 0.00 | 84 | 1007.4 |
| 20260507080819 | 66 | 357 | 5.0 | 11.0 | 0.00 | 0.00 | 0.00 | 84 | 1007.5 |
| 20260507080718 | 66 | 357 | 5.0 | 11.0 | 0.00 | 0.00 | 0.00 | 84 | 1007.4 |
| 20260507080619 | 66 | 353 | 7.0 | 11.0 | 0.00 | 0.00 | 0.00 | 84 | 1007.5 |
| 20260507080518 | 66 | 0 | 7.0 | 11.0 | 0.00 | 0.00 | 0.00 | 84 | 1007.4 |
| 20260507080419 | 66 | 0 | 6.0 | 11.0 | 0.00 | 0.00 | 0.00 | 84 | 1007.5 |
| 20260507080317 | 66 | 0 | 8.0 | 11.0 | 0.00 | 0.00 | 0.00 | 84 | 1007.5 |
| 20260507080218 | 66 | 347 | 8.0 | 11.0 | 0.00 | 0.00 | 0.00 | 84 | 1007.5 |
| 20260507080119 | 66 | 345 | 7.0 | 11.0 | 0.00 | 0.00 | 0.00 | 84 | 1007.5 |
| 20260507080018 | 66 | 343 | 6.0 | 11.0 | 0.00 | 0.00 | 0.00 | 84 | 1007.6 |
| 20260507075918 | 66 | 314 | 6.0 | 11.0 | 0.00 | 0.00 | 0.00 | 84 | 1007.6 |
| 20260507075818 | 66 | 338 | 6.0 | 11.0 | 0.00 | 0.00 | 0.00 | 84 | 1007.7 |
| 20260507075717 | 66 | 331 | 7.0 | 11.0 | 0.00 | 0.00 | 0.00 | 84 | 1007.6 |
| 20260507075617 | 66 | 0 | 7.0 | 11.0 | 0.00 | 0.00 | 0.00 | 84 | 1007.5 |
| 20260507075519 | 66 | 340 | 7.0 | 12.0 | 0.00 | 0.00 | 0.00 | 84 | 1007.3 |
| 20260507075418 | 66 | 357 | 8.0 | 12.0 | 0.00 | 0.00 | 0.00 | 84 | 1007.3 |
| 20260507075317 | 66 | 338 | 8.0 | 12.0 | 0.00 | 0.00 | 0.00 | 84 | 1007.2 |
| 20260507075218 | 66 | 0 | 6.0 | 12.0 | 0.00 | 0.00 | 0.00 | 84 | 1007.3 |
| 20260507075111 | 66 | 354 | 6.0 | 12.0 | 0.00 | 0.00 | 0.00 | 84 | 1007.4 |
| 20260507075004 | 66 | 0 | 5.0 | 12.0 | 0.00 | 0.00 | 0.00 | 84 | 1007.4 |
| 20260507074901 | 66 | 0 | 5.0 | 12.0 | 0.00 | 0.00 | 0.00 | 84 | 1007.5 |
| 20260507074802 | 66 | 350 | 6.0 | 12.0 | 0.00 | 0.00 | 0.00 | 84 | 1007.5 |
| 20260507074703 | 66 | 343 | 7.0 | 12.0 | 0.00 | 0.00 | 0.00 | 84 | 1007.5 |
| 20260507074603 | 66 | 347 | 6.0 | 12.0 | 0.00 | 0.00 | 0.00 | 84 | 1007.5 |
| 20260507074503 | 66 | 345 | 6.0 | 12.0 | 0.00 | 0.00 | 0.00 | 84 | 1007.5 |
| 20260507074404 | 66 | 343 | 4.0 | 12.0 | 0.00 | 0.00 | 0.00 | 84 | 1007.5 |
| 20260507074302 | 66 | 11 | 4.0 | 12.0 | 0.00 | 0.00 | 0.00 | 84 | 1007.4 |
| 20260507074203 | 66 | 340 | 7.0 | 12.0 | 0.00 | 0.00 | 0.00 | 84 | 1007.4 |
| 20260507074102 | 66 | 353 | 6.0 | 12.0 | 0.00 | 0.00 | 0.00 | 84 | 1007.3 |
| 20260507074003 | 66 | 353 | 6.0 | 12.0 | 0.00 | 0.00 | 0.00 | 84 | 1007.3 |
| 20260507073905 | 66 | 348 | 7.0 | 12.0 | 0.00 | 0.00 | 0.00 | 84 | 1007.2 |
| 20260507073802 | 66 | 340 | 7.0 | 12.0 | 0.00 | 0.00 | 0.00 | 84 | 1007.2 |
| 20260507073703 | 66 | 337 | 8.0 | 12.0 | 0.00 | 0.00 | 0.00 | 84 | 1007.3 |
| 20260507073602 | 66 | 331 | 7.0 | 12.0 | 0.00 | 0.00 | 0.00 | 84 | 1007.3 |
| 20260507073503 | 66 | 358 | 7.0 | 14.0 | 0.00 | 0.00 | 0.00 | 84 | 1007.4 |
| 20260507073402 | 66 | 347 | 7.0 | 14.0 | 0.00 | 0.00 | 0.00 | 84 | 1007.5 |
| 20260507073304 | 66 | 326 | 7.0 | 14.0 | 0.00 | 0.00 | 0.00 | 84 | 1007.6 |
| 20260507073203 | 66 | 353 | 8.0 | 14.0 | 0.00 | 0.00 | 0.00 | 84 | 1007.7 |
| 20260507073102 | 66 | 345 | 8.0 | 14.0 | 0.00 | 0.00 | 0.00 | 84 | 1007.7 |
| 20260507073003 | 66 | 333 | 8.0 | 14.0 | 0.00 | 0.00 | 0.00 | 83 | 1007.8 |
| 20260507072903 | 66 | 0 | 8.0 | 14.0 | 0.00 | 0.00 | 0.00 | 83 | 1007.8 |
| 20260507072803 | 66 | 302 | 8.0 | 14.0 | 0.00 | 0.00 | 0.00 | 83 | 1007.8 |
| 20260507072702 | 66 | 0 | 9.0 | 14.0 | 0.00 | 0.00 | 0.00 | 83 | 1007.7 |
| 20260507072602 | 66 | 353 | 9.0 | 14.0 | 0.00 | 0.00 | 0.00 | 84 | 1007.7 |
| 20260507072503 | 66 | 0 | 8.0 | 12.0 | 0.00 | 0.00 | 0.00 | 84 | 1007.8 |
| 20260507072403 | 66 | 340 | 8.0 | 12.0 | 0.00 | 0.00 | 0.00 | 84 | 1007.8 |
| 20260507072306 | 66 | 345 | 9.0 | 12.0 | 0.00 | 0.00 | 0.00 | 84 | 1007.7 |
| 20260507072204 | 66 | 337 | 9.0 | 12.0 | 0.00 | 0.00 | 0.00 | 84 | 1007.8 |
| 20260507072102 | 66 | 333 | 8.0 | 12.0 | 0.00 | 0.00 | 0.00 | 84 | 1007.8 |
| 20260507072004 | 66 | 337 | 8.0 | 12.0 | 0.00 | 0.00 | 0.00 | 84 | 1007.9 |
| 20260507071903 | 66 | 351 | 8.0 | 12.0 | 0.00 | 0.00 | 0.00 | 84 | 1007.9 |
| 20260507071803 | 66 | 337 | 7.0 | 12.0 | 0.00 | 0.00 | 0.00 | 84 | 1007.9 |
| 20260507071702 | 66 | 341 | 8.0 | 12.0 | 0.00 | 0.00 | 0.00 | 84 | 1007.8 |
| 20260507071603 | 66 | 324 | 8.0 | 13.0 | 0.00 | 0.00 | 0.00 | 84 | 1007.8 |
| 20260507071503 | 66 | 337 | 7.0 | 13.0 | 0.00 | 0.00 | 0.00 | 84 | 1007.7 |
| 20260507071402 | 66 | 317 | 7.0 | 13.0 | 0.00 | 0.00 | 0.00 | 84 | 1007.8 |
| 20260507071303 | 66 | 358 | 6.0 | 13.0 | 0.00 | 0.00 | 0.00 | 84 | 1007.8 |
| 20260507071202 | 66 | 337 | 9.0 | 13.0 | 0.00 | 0.00 | 0.00 | 84 | 1007.8 |
| 20260507071103 | 66 | 345 | 10.0 | 13.0 | 0.00 | 0.00 | 0.00 | 83 | 1007.8 |
| 20260507071005 | 66 | 333 | 9.0 | 13.0 | 0.00 | 0.00 | 0.00 | 83 | 1007.8 |
| 20260507070903 | 66 | 334 | 8.0 | 13.0 | 0.00 | 0.00 | 0.00 | 83 | 1007.7 |
| 20260507070803 | 66 | 355 | 9.0 | 13.0 | 0.00 | 0.00 | 0.00 | 83 | 1007.7 |
| 20260507070702 | 66 | 14 | 9.0 | 13.0 | 0.00 | 0.00 | 0.00 | 83 | 1007.8 |
| 20260507070602 | 66 | 355 | 7.0 | 12.0 | 0.00 | 0.00 | 0.00 | 84 | 1007.7 |
| 20260507070503 | 66 | 343 | 6.0 | 12.0 | 0.00 | 0.00 | 0.00 | 83 | 1007.7 |
| 20260507070402 | 66 | 357 | 7.0 | 12.0 | 0.00 | 0.00 | 0.00 | 84 | 1007.8 |
| 20260507070302 | 66 | 350 | 8.0 | 12.0 | 0.00 | 0.00 | 0.00 | 84 | 1007.9 |
| 20260507070202 | 66 | 0 | 9.0 | 12.0 | 0.00 | 0.00 | 0.00 | 84 | 1007.9 |
| 20260507070003 | 66 | 327 | 7.0 | 12.0 | 0.00 | 0.00 | 0.00 | 83 | 1008.1 |
| 20260507065904 | 66 | 344 | 8.0 | 12.0 | 0.00 | 0.00 | 0.00 | 83 | 1008.1 |
| 20260507065804 | 66 | 345 | 9.0 | 12.0 | 0.00 | 0.00 | 0.00 | 83 | 1008.0 |
| 20260507065704 | 66 | 334 | 9.0 | 12.0 | 0.00 | 0.00 | 0.00 | 83 | 1008.1 |
| 20260507065602 | 66 | 327 | 9.0 | 12.0 | 0.00 | 0.00 | 0.00 | 83 | 1008.0 |
| 20260507065504 | 66 | 324 | 7.0 | 12.0 | 0.00 | 0.00 | 0.00 | 83 | 1008.1 |
| 20260507065402 | 66 | 329 | 6.0 | 12.0 | 0.00 | 0.00 | 0.00 | 83 | 1008.1 |
| 20260507065305 | 66 | 340 | 7.0 | 12.0 | 0.00 | 0.00 | 0.00 | 84 | 1008.1 |
| 20260507065203 | 66 | 320 | 8.0 | 12.0 | 0.00 | 0.00 | 0.00 | 84 | 1008.1 |
| 20260507065103 | 66 | 309 | 8.0 | 12.0 | 0.00 | 0.00 | 0.00 | 83 | 1008.2 |
| 20260507065004 | 66 | 330 | 9.0 | 13.0 | 0.00 | 0.00 | 0.00 | 83 | 1008.1 |
| 20260507064902 | 66 | 312 | 9.0 | 13.0 | 0.00 | 0.00 | 0.00 | 83 | 1008.0 |
| 20260507064802 | 66 | 336 | 10.0 | 13.0 | 0.00 | 0.00 | 0.00 | 83 | 1008.0 |
| 20260507064703 | 66 | 343 | 10.0 | 13.0 | 0.00 | 0.00 | 0.00 | 83 | 1007.9 |
| 20260507064604 | 66 | 351 | 9.0 | 13.0 | 0.00 | 0.00 | 0.00 | 83 | 1007.9 |
| 20260507064504 | 66 | 344 | 8.0 | 13.0 | 0.00 | 0.00 | 0.00 | 83 | 1007.9 |
| 20260507064402 | 66 | 348 | 7.0 | 13.0 | 0.00 | 0.00 | 0.00 | 83 | 1007.9 |
| 20260507064302 | 66 | 345 | 7.0 | 13.0 | 0.00 | 0.00 | 0.00 | 83 | 1007.9 |
| 20260507064203 | 66 | 316 | 9.0 | 15.0 | 0.00 | 0.00 | 0.00 | 83 | 1007.9 |
| 20260507064102 | 66 | 353 | 10.0 | 15.0 | 0.00 | 0.00 | 0.00 | 83 | 1007.8 |
| 20260507064002 | 66 | 353 | 9.0 | 15.0 | 0.00 | 0.00 | 0.00 | 83 | 1007.8 |
| 20260507063905 | 66 | 357 | 8.0 | 15.0 | 0.00 | 0.00 | 0.00 | 83 | 1007.8 |
| 20260507063803 | 66 | 345 | 8.0 | 15.0 | 0.00 | 0.00 | 0.00 | 83 | 1007.8 |
| 20260507063703 | 66 | 321 | 7.0 | 15.0 | 0.00 | 0.00 | 0.00 | 83 | 1007.7 |
| 20260507063602 | 66 | 345 | 7.0 | 15.0 | 0.00 | 0.00 | 0.00 | 83 | 1007.9 |
| 20260507063503 | 66 | 340 | 6.0 | 15.0 | 0.00 | 0.00 | 0.00 | 83 | 1007.9 |
| 20260507063403 | 66 | 0 | 9.0 | 15.0 | 0.00 | 0.00 | 0.00 | 83 | 1007.9 |
| 20260507063302 | 67 | 341 | 9.0 | 15.0 | 0.00 | 0.00 | 0.00 | 83 | 1008.0 |
| 20260507063203 | 67 | 312 | 9.0 | 12.0 | 0.00 | 0.00 | 0.00 | 83 | 1008.0 |
| 20260507063102 | 67 | 323 | 9.0 | 12.0 | 0.00 | 0.00 | 0.00 | 83 | 1008.1 |
| 20260507063004 | 67 | 347 | 8.0 | 12.0 | 0.00 | 0.00 | 0.00 | 83 | 1008.1 |
| 20260507062902 | 67 | 338 | 7.0 | 11.0 | 0.00 | 0.00 | 0.00 | 83 | 1008.0 |
| 20260507062802 | 67 | 290 | 6.0 | 11.0 | 0.00 | 0.00 | 0.00 | 83 | 1008.0 |
| 20260507062703 | 67 | 317 | 7.0 | 12.0 | 0.00 | 0.00 | 0.00 | 83 | 1007.9 |
| 20260507062603 | 67 | 296 | 7.0 | 12.0 | 0.00 | 0.00 | 0.00 | 83 | 1007.8 |
| 20260507062503 | 67 | 320 | 8.0 | 12.0 | 0.00 | 0.00 | 0.00 | 83 | 1007.8 |
| 20260507062403 | 67 | 334 | 7.0 | 12.0 | 0.00 | 0.00 | 0.00 | 83 | 1007.7 |
| 20260507062306 | 67 | 333 | 7.0 | 12.0 | 0.00 | 0.00 | 0.00 | 83 | 1007.8 |
| 20260507062203 | 67 | 337 | 6.0 | 12.0 | 0.00 | 0.00 | 0.00 | 83 | 1007.6 |
| 20260507062102 | 67 | 316 | 6.0 | 12.0 | 0.00 | 0.00 | 0.00 | 83 | 1007.6 |
| 20260507062003 | 67 | 347 | 7.0 | 12.0 | 0.00 | 0.00 | 0.00 | 83 | 1007.6 |
| 20260507061902 | 67 | 0 | 9.0 | 13.0 | 0.00 | 0.00 | 0.00 | 83 | 1007.6 |
| 20260507061803 | 67 | 0 | 9.0 | 13.0 | 0.00 | 0.00 | 0.00 | 83 | 1007.6 |
| 20260507061704 | 67 | 358 | 9.0 | 13.0 | 0.00 | 0.00 | 0.00 | 83 | 1007.6 |
| 20260507061603 | 67 | 351 | 9.0 | 13.0 | 0.00 | 0.00 | 0.00 | 83 | 1007.7 |
| 20260507061504 | 67 | 319 | 9.0 | 13.0 | 0.00 | 0.00 | 0.00 | 83 | 1007.8 |
| 20260507061404 | 67 | 348 | 9.0 | 14.0 | 0.00 | 0.00 | 0.00 | 83 | 1007.9 |
| 20260507061303 | 67 | 343 | 8.0 | 14.0 | 0.00 | 0.00 | 0.00 | 83 | 1007.9 |
| 20260507061202 | 67 | 314 | 7.0 | 14.0 | 0.00 | 0.00 | 0.00 | 83 | 1008.0 |
| 20260507061104 | 67 | 333 | 8.0 | 14.0 | 0.00 | 0.00 | 0.00 | 83 | 1008.0 |
| 20260507061004 | 67 | 329 | 9.0 | 14.0 | 0.00 | 0.00 | 0.00 | 83 | 1007.9 |
| 20260507060904 | 67 | 340 | 6.0 | 14.0 | 0.00 | 0.00 | 0.00 | 83 | 1007.9 |
| 20260507060803 | 67 | 324 | 6.0 | 14.0 | 0.00 | 0.00 | 0.00 | 83 | 1007.9 |
| 20260507060703 | 67 | 319 | 8.0 | 14.0 | 0.00 | 0.00 | 0.00 | 83 | 1007.8 |
| 20260507060603 | 67 | 319 | 10.0 | 14.0 | 0.00 | 0.00 | 0.00 | 83 | 1007.9 |
| 20260507060502 | 67 | 345 | 10.0 | 14.0 | 0.00 | 0.00 | 0.00 | 83 | 1007.8 |
| 20260507060402 | 67 | 310 | 8.0 | 13.0 | 0.00 | 0.00 | 0.00 | 83 | 1007.7 |
| 20260507060303 | 67 | 324 | 7.0 | 13.0 | 0.00 | 0.00 | 0.00 | 83 | 1007.6 |
| 20260507060202 | 67 | 348 | 7.0 | 13.0 | 0.00 | 0.00 | 0.00 | 83 | 1007.6 |
| 20260507060104 | 67 | 354 | 9.0 | 13.0 | 0.00 | 0.00 | 0.00 | 83 | 1007.5 |
| 20260507060003 | 67 | 351 | 8.0 | 13.0 | 0.00 | 0.00 | 0.00 | 83 | 1007.5 |
| 20260507055902 | 67 | 354 | 8.0 | 13.0 | 0.00 | 0.00 | 0.00 | 83 | 1007.6 |
| 20260507055803 | 67 | 324 | 9.0 | 12.0 | 0.00 | 0.00 | 0.00 | 83 | 1007.5 |
| 20260507055702 | 67 | 0 | 9.0 | 12.0 | 0.00 | 0.00 | 0.00 | 83 | 1007.5 |
| 20260507055603 | 67 | 341 | 8.0 | 12.0 | 0.00 | 0.00 | 0.00 | 83 | 1007.6 |
| 20260507055504 | 67 | 345 | 7.0 | 12.0 | 0.00 | 0.00 | 0.00 | 83 | 1007.5 |
| 20260507055402 | 67 | 334 | 8.0 | 12.0 | 0.00 | 0.00 | 0.00 | 83 | 1007.5 |
| 20260507055306 | 67 | 316 | 8.0 | 12.0 | 0.00 | 0.00 | 0.00 | 83 | 1007.5 |
| 20260507055202 | 67 | 337 | 7.0 | 12.0 | 0.00 | 0.00 | 0.00 | 83 | 1007.6 |
| 20260507055103 | 67 | 317 | 8.0 | 12.0 | 0.00 | 0.00 | 0.00 | 83 | 1007.6 |
| 20260507055004 | 67 | 320 | 8.0 | 14.0 | 0.00 | 0.00 | 0.00 | 83 | 1007.6 |
| 20260507054903 | 67 | 313 | 8.0 | 14.0 | 0.00 | 0.00 | 0.00 | 83 | 1007.5 |
| 20260507054802 | 67 | 337 | 9.0 | 14.0 | 0.00 | 0.00 | 0.00 | 83 | 1007.5 |
| 20260507054703 | 67 | 329 | 9.0 | 14.0 | 0.00 | 0.00 | 0.00 | 83 | 1007.5 |
| 20260507054602 | 67 | 348 | 8.0 | 14.0 | 0.00 | 0.00 | 0.00 | 83 | 1007.4 |
| 20260507054505 | 67 | 312 | 8.0 | 14.0 | 0.00 | 0.00 | 0.00 | 83 | 1007.6 |
| 20260507054402 | 67 | 336 | 9.0 | 14.0 | 0.00 | 0.00 | 0.00 | 83 | 1007.6 |
| 20260507054303 | 67 | 341 | 9.0 | 14.0 | 0.00 | 0.00 | 0.00 | 83 | 1007.6 |
| 20260507054203 | 67 | 340 | 9.0 | 14.0 | 0.00 | 0.00 | 0.00 | 83 | 1007.7 |
| 20260507054104 | 67 | 341 | 9.0 | 14.0 | 0.00 | 0.00 | 0.00 | 83 | 1007.6 |
| 20260507054002 | 67 | 324 | 7.0 | 11.0 | 0.00 | 0.00 | 0.00 | 83 | 1007.7 |
| 20260507053903 | 67 | 0 | 6.0 | 11.0 | 0.00 | 0.00 | 0.00 | 83 | 1007.6 |
| 20260507053802 | 67 | 312 | 5.0 | 11.0 | 0.00 | 0.00 | 0.00 | 83 | 1007.5 |
| 20260507053703 | 67 | 336 | 6.0 | 11.0 | 0.00 | 0.00 | 0.00 | 83 | 1007.4 |
| 20260507053603 | 67 | 347 | 7.0 | 12.0 | 0.00 | 0.00 | 0.00 | 83 | 1007.5 |
| 20260507053503 | 67 | 357 | 8.0 | 12.0 | 0.00 | 0.00 | 0.00 | 83 | 1007.4 |
| 20260507053405 | 67 | 330 | 7.0 | 12.0 | 0.00 | 0.00 | 0.00 | 83 | 1007.5 |
| 20260507053304 | 67 | 338 | 7.0 | 12.0 | 0.00 | 0.00 | 0.00 | 83 | 1007.5 |
| 20260507053203 | 67 | 345 | 8.0 | 12.0 | 0.00 | 0.00 | 0.00 | 83 | 1007.6 |
| 20260507053101 | 67 | 319 | 9.0 | 12.0 | 0.00 | 0.00 | 0.00 | 83 | 1007.6 |
| 20260507053005 | 67 | 319 | 7.0 | 12.0 | 0.00 | 0.00 | 0.00 | 83 | 1007.6 |
| 20260507052902 | 67 | 324 | 7.0 | 12.0 | 0.00 | 0.00 | 0.00 | 83 | 1007.6 |
| 20260507052802 | 67 | 306 | 8.0 | 12.0 | 0.00 | 0.00 | 0.00 | 83 | 1007.5 |
| 20260507052704 | 67 | 323 | 8.0 | 12.0 | 0.00 | 0.00 | 0.00 | 83 | 1007.5 |
| 20260507052602 | 67 | 326 | 8.0 | 12.0 | 0.00 | 0.00 | 0.00 | 83 | 1007.4 |
| 20260507052504 | 67 | 321 | 9.0 | 12.0 | 0.00 | 0.00 | 0.00 | 83 | 1007.5 |
| 20260507052403 | 67 | 345 | 8.0 | 13.0 | 0.00 | 0.00 | 0.00 | 83 | 1007.4 |
| 20260507052306 | 67 | 290 | 8.0 | 13.0 | 0.00 | 0.00 | 0.00 | 83 | 1007.3 |
| 20260507052203 | 67 | 319 | 8.0 | 13.0 | 0.00 | 0.00 | 0.00 | 83 | 1007.3 |
| 20260507052101 | 67 | 336 | 8.0 | 13.0 | 0.00 | 0.00 | 0.00 | 83 | 1007.3 |
| 20260507052003 | 67 | 310 | 9.0 | 13.0 | 0.00 | 0.00 | 0.00 | 83 | 1007.3 |
| 20260507051903 | 67 | 338 | 8.0 | 13.0 | 0.00 | 0.00 | 0.00 | 83 | 1007.3 |
| 20260507051804 | 67 | 330 | 8.0 | 13.0 | 0.00 | 0.00 | 0.00 | 83 | 1007.3 |
| 20260507051704 | 67 | 324 | 9.0 | 14.0 | 0.00 | 0.00 | 0.00 | 83 | 1007.2 |
| 20260507051602 | 67 | 330 | 10.0 | 14.0 | 0.00 | 0.00 | 0.00 | 83 | 1007.3 |
| 20260507051504 | 67 | 337 | 10.0 | 14.0 | 0.00 | 0.00 | 0.00 | 83 | 1007.4 |
| 20260507051402 | 67 | 345 | 10.0 | 14.0 | 0.00 | 0.00 | 0.00 | 83 | 1007.4 |
| 20260507051303 | 67 | 323 | 8.0 | 14.0 | 0.00 | 0.00 | 0.00 | 83 | 1007.3 |
| 20260507051203 | 68 | 309 | 9.0 | 14.0 | 0.00 | 0.00 | 0.00 | 83 | 1007.3 |
| 20260507051103 | 68 | 321 | 10.0 | 14.0 | 0.00 | 0.00 | 0.00 | 83 | 1007.3 |
| 20260507051005 | 68 | 353 | 11.0 | 14.0 | 0.00 | 0.00 | 0.00 | 83 | 1007.4 |
| 20260507050903 | 68 | 329 | 11.0 | 14.0 | 0.00 | 0.00 | 0.00 | 82 | 1007.4 |
| 20260507050804 | 68 | 347 | 11.0 | 14.0 | 0.00 | 0.00 | 0.00 | 82 | 1007.4 |
| 20260507050703 | 68 | 320 | 9.0 | 12.0 | 0.00 | 0.00 | 0.00 | 82 | 1007.4 |
| 20260507050602 | 68 | 336 | 10.0 | 12.0 | 0.00 | 0.00 | 0.00 | 82 | 1007.4 |
| 20260507050503 | 68 | 319 | 10.0 | 12.0 | 0.00 | 0.00 | 0.00 | 82 | 1007.5 |
| 20260507050404 | 68 | 341 | 9.0 | 12.0 | 0.00 | 0.00 | 0.00 | 82 | 1007.3 |
| 20260507050303 | 68 | 343 | 8.0 | 13.0 | 0.00 | 0.00 | 0.00 | 82 | 1007.4 |
| 20260507050202 | 68 | 331 | 8.0 | 13.0 | 0.00 | 0.00 | 0.00 | 82 | 1007.4 |
| 20260507050104 | 68 | 321 | 8.0 | 13.0 | 0.00 | 0.00 | 0.00 | 83 | 1007.4 |
| 20260507050003 | 68 | 321 | 7.0 | 13.0 | 0.00 | 0.00 | 0.00 | 83 | 1007.4 |
| 20260507045902 | 68 | 344 | 7.0 | 13.0 | 0.00 | 0.00 | 0.00 | 82 | 1007.4 |
| 20260507045803 | 68 | 347 | 6.0 | 13.0 | 0.00 | 0.00 | 0.00 | 82 | 1007.4 |
| 20260507045703 | 68 | 321 | 6.0 | 13.0 | 0.00 | 0.00 | 0.00 | 82 | 1007.5 |
| 20260507045603 | 68 | 310 | 6.0 | 13.0 | 0.00 | 0.00 | 0.00 | 82 | 1007.4 |
| 20260507045505 | 68 | 323 | 7.0 | 13.0 | 0.00 | 0.00 | 0.00 | 82 | 1007.4 |
| 20260507045402 | 68 | 343 | 8.0 | 13.0 | 0.00 | 0.00 | 0.00 | 82 | 1007.4 |
| 20260507045301 | 68 | 357 | 8.0 | 13.0 | 0.00 | 0.00 | 0.00 | 82 | 1007.4 |
| 20260507045202 | 68 | 338 | 9.0 | 13.0 | 0.00 | 0.00 | 0.00 | 82 | 1007.4 |
| 20260507045104 | 68 | 337 | 10.0 | 13.0 | 0.00 | 0.00 | 0.00 | 82 | 1007.4 |
| 20260507045003 | 68 | 331 | 9.0 | 13.0 | 0.00 | 0.00 | 0.00 | 82 | 1007.5 |
| 20260507044903 | 68 | 338 | 9.0 | 12.0 | 0.00 | 0.00 | 0.00 | 82 | 1007.5 |
| 20260507044804 | 68 | 341 | 8.0 | 13.0 | 0.00 | 0.00 | 0.00 | 82 | 1007.5 |
| 20260507044703 | 68 | 319 | 7.0 | 14.0 | 0.00 | 0.00 | 0.00 | 82 | 1007.4 |
| 20260507044603 | 68 | 350 | 7.0 | 14.0 | 0.00 | 0.00 | 0.00 | 82 | 1007.5 |
| 20260507044504 | 68 | 350 | 7.0 | 14.0 | 0.00 | 0.00 | 0.00 | 82 | 1007.4 |
| 20260507044402 | 68 | 333 | 9.0 | 14.0 | 0.00 | 0.00 | 0.00 | 82 | 1007.4 |
| 20260507044303 | 68 | 314 | 8.0 | 14.0 | 0.00 | 0.00 | 0.00 | 82 | 1007.5 |
| 20260507044204 | 68 | 344 | 8.0 | 14.0 | 0.00 | 0.00 | 0.00 | 82 | 1007.5 |
| 20260507044103 | 68 | 340 | 9.0 | 14.0 | 0.00 | 0.00 | 0.00 | 82 | 1007.4 |
| 20260507044003 | 69 | 336 | 10.0 | 14.0 | 0.00 | 0.00 | 0.00 | 82 | 1007.4 |
| 20260507043902 | 69 | 355 | 10.0 | 14.0 | 0.00 | 0.00 | 0.00 | 82 | 1007.5 |
| 20260507043801 | 69 | 358 | 9.0 | 14.0 | 0.00 | 0.00 | 0.00 | 82 | 1007.4 |
| 20260507043703 | 69 | 321 | 7.0 | 12.0 | 0.00 | 0.00 | 0.00 | 82 | 1007.3 |
| 20260507043603 | 69 | 324 | 7.0 | 11.0 | 0.00 | 0.00 | 0.00 | 82 | 1007.4 |
| 20260507043503 | 69 | 341 | 8.0 | 11.0 | 0.00 | 0.00 | 0.00 | 82 | 1007.4 |
| 20260507043404 | 69 | 341 | 9.0 | 11.0 | 0.00 | 0.00 | 0.00 | 82 | 1007.3 |
| 20260507043303 | 69 | 323 | 7.0 | 11.0 | 0.00 | 0.00 | 0.00 | 82 | 1007.3 |
| 20260507043203 | 69 | 341 | 6.0 | 11.0 | 0.00 | 0.00 | 0.00 | 82 | 1007.4 |
| 20260507043104 | 69 | 324 | 5.0 | 11.0 | 0.00 | 0.00 | 0.00 | 82 | 1007.3 |
| 20260507043002 | 69 | 305 | 5.0 | 11.0 | 0.00 | 0.00 | 0.00 | 82 | 1007.4 |
| 20260507042902 | 69 | 336 | 6.0 | 11.0 | 0.00 | 0.00 | 0.00 | 82 | 1007.4 |
| 20260507042803 | 69 | 343 | 6.0 | 11.0 | 0.00 | 0.00 | 0.00 | 82 | 1007.5 |
| 20260507042703 | 69 | 343 | 6.0 | 11.0 | 0.00 | 0.00 | 0.00 | 82 | 1007.4 |
| 20260507042601 | 69 | 338 | 7.0 | 11.0 | 0.00 | 0.00 | 0.00 | 82 | 1007.5 |
| 20260507042505 | 69 | 333 | 8.0 | 11.0 | 0.00 | 0.00 | 0.00 | 82 | 1007.4 |
| 20260507042404 | 69 | 336 | 8.0 | 12.0 | 0.00 | 0.00 | 0.00 | 82 | 1007.5 |
| 20260507042306 | 69 | 337 | 7.0 | 12.0 | 0.00 | 0.00 | 0.00 | 82 | 1007.5 |
| 20260507042203 | 69 | 330 | 7.0 | 12.0 | 0.00 | 0.00 | 0.00 | 82 | 1007.4 |
| 20260507042101 | 69 | 343 | 7.0 | 14.0 | 0.00 | 0.00 | 0.00 | 82 | 1007.4 |
| 20260507042004 | 69 | 333 | 6.0 | 14.0 | 0.00 | 0.00 | 0.00 | 82 | 1007.5 |
| 20260507041903 | 69 | 317 | 6.0 | 14.0 | 0.00 | 0.00 | 0.00 | 82 | 1007.5 |
| 20260507041802 | 69 | 337 | 7.0 | 14.0 | 0.00 | 0.00 | 0.00 | 82 | 1007.5 |
| 20260507041703 | 69 | 337 | 7.0 | 14.0 | 0.00 | 0.00 | 0.00 | 82 | 1007.4 |
| 20260507041603 | 69 | 348 | 8.0 | 14.0 | 0.00 | 0.00 | 0.00 | 82 | 1007.5 |
| 20260507041504 | 69 | 343 | 8.0 | 14.0 | 0.00 | 0.00 | 0.00 | 82 | 1007.4 |
| 20260507041403 | 69 | 340 | 9.0 | 14.0 | 0.00 | 0.00 | 0.00 | 82 | 1007.5 |
| 20260507041303 | 69 | 354 | 11.0 | 14.0 | 0.00 | 0.00 | 0.00 | 82 | 1007.4 |
| 20260507041203 | 69 | 321 | 11.0 | 14.0 | 0.00 | 0.00 | 0.00 | 82 | 1007.4 |
| 20260507041102 | 69 | 337 | 9.0 | 13.0 | 0.00 | 0.00 | 0.00 | 82 | 1007.3 |
| 20260507041002 | 69 | 319 | 8.0 | 12.0 | 0.00 | 0.00 | 0.00 | 82 | 1007.3 |
| 20260507040901 | 69 | 312 | 7.0 | 12.0 | 0.00 | 0.00 | 0.00 | 82 | 1007.3 |
| 20260507040803 | 69 | 321 | 6.0 | 12.0 | 0.00 | 0.00 | 0.00 | 82 | 1007.3 |
| 20260507040703 | 69 | 334 | 6.0 | 12.0 | 0.00 | 0.00 | 0.00 | 82 | 1007.3 |
| 20260507040602 | 69 | 330 | 6.0 | 12.0 | 0.00 | 0.00 | 0.00 | 82 | 1007.3 |
| 20260507040504 | 69 | 353 | 7.0 | 12.0 | 0.00 | 0.00 | 0.00 | 82 | 1007.3 |
| 20260507040401 | 69 | 348 | 8.0 | 12.0 | 0.00 | 0.00 | 0.00 | 82 | 1007.4 |
| 20260507040303 | 69 | 324 | 9.0 | 12.0 | 0.00 | 0.00 | 0.00 | 82 | 1007.4 |
| 20260507040203 | 69 | 317 | 9.0 | 12.0 | 0.00 | 0.00 | 0.00 | 82 | 1007.4 |
| 20260507040004 | 69 | 7 | 7.0 | 12.0 | 0.00 | 0.00 | 0.00 | 82 | 1007.2 |